NOAA Web Site Link Tides and Currents Home Page Transparent placeholder image

PORTS® Data Listing: 9410692 Los Angeles Pier S, CA

CO-OPS RAW PORTS DATA

************************      PRELIMINARY DATA      ************************** 

     THIS RAW DATA HAS NOT BEEN SUBJECT TO THE NATIONAL OCEAN SERVICE'S        
     QUALITY CONTROL OR QUALITY ASSURANCE PROCEDURES AND DOES NOT MEET         
     THE CRITERIA AND STANDARDS OF OFFICIAL NATIONAL OCEAN SERVICE             
     DATA.  IT IS RELEASED FOR LIMITED PUBLIC USE AS PRELIMINARY DATA TO       
     BE USED ONLY WITH APPROPRIATE CAUTION.                                    

************************      PRELIMINARY DATA      ************************** 


       CD   -   Calendar date
       T    -   Time
       TZ   -   Timezone
       PW   -   Predicted water level (feet above MLLW)
       OW   -   Observed water level (feet above MLLW)
       WS   -   Wind speed (knots)
       WD   -   Wind direction (degrees true)
       WG   -   Wind gust (knots)
       AT   -   Air temperature (degrees farenheit)
       WT   -   Water temperature (degrees farenheit)
       AP   -   Air pressure (millibars)
       SA   -   Salinty (PSU - Practical Salinity Units)
       SG   -   Specific gravity
       RH   -   Relative humidity
       AG   -   Air gap (feet)
       VI   -   Visibility (nautical miles)

       ** NOTE **
       A variable that has its data fields filled with "9"s, indicates that
       data was not collected for that sample period.
       **********


STATION NAME: Pier S (9410692)
****************************************************************************************************
    CD       T    TZ    PW     OW    WS   WD   WG    AT    WT    AP    SA    SG     RH    AG   VI
****************************************************************************************************
2019/08/15 09:00 PDT  -99.99 -99.99    4  185    5 -99.9 -99.9 -999.9 -9.9 -9.999 -99.9 -99.99 -9.99
2019/08/15 09:06 PDT  -99.99 -99.99    2  168    4 -99.9 -99.9 -999.9 -9.9 -9.999 -99.9 -99.99 -9.99
2019/08/15 09:12 PDT  -99.99 -99.99    2  184    4 -99.9 -99.9 -999.9 -9.9 -9.999 -99.9 -99.99 -9.99
2019/08/15 09:18 PDT  -99.99 -99.99    4  177    5 -99.9 -99.9 -999.9 -9.9 -9.999 -99.9 -99.99 -9.99
2019/08/15 09:24 PDT  -99.99 -99.99    5  168    6 -99.9 -99.9 -999.9 -9.9 -9.999 -99.9 -99.99 -9.99
2019/08/15 09:30 PDT  -99.99 -99.99    4  179    7 -99.9 -99.9 -999.9 -9.9 -9.999 -99.9 -99.99 -9.99
2019/08/15 09:36 PDT  -99.99 -99.99    7  177    9 -99.9 -99.9 -999.9 -9.9 -9.999 -99.9 -99.99 -9.99
2019/08/15 09:42 PDT  -99.99 -99.99    7  181    9 -99.9 -99.9 -999.9 -9.9 -9.999 -99.9 -99.99 -9.99
2019/08/15 09:48 PDT  -99.99 -99.99    8  177   10 -99.9 -99.9 -999.9 -9.9 -9.999 -99.9 -99.99 -9.99
2019/08/15 09:54 PDT  -99.99 -99.99    8  183   10 -99.9 -99.9 -999.9 -9.9 -9.999 -99.9 -99.99 -9.99
2019/08/15 10:00 PDT  -99.99 -99.99    6  192    9 -99.9 -99.9 -999.9 -9.9 -9.999 -99.9 -99.99 -9.99
2019/08/15 10:06 PDT  -99.99 -99.99    6  179    8 -99.9 -99.9 -999.9 -9.9 -9.999 -99.9 -99.99 -9.99
2019/08/15 10:12 PDT  -99.99 -99.99    6  188    8 -99.9 -99.9 -999.9 -9.9 -9.999 -99.9 -99.99 -9.99
2019/08/15 10:18 PDT  -99.99 -99.99    5  190    8 -99.9 -99.9 -999.9 -9.9 -9.999 -99.9 -99.99 -9.99
2019/08/15 10:24 PDT  -99.99 -99.99    5  191    7 -99.9 -99.9 -999.9 -9.9 -9.999 -99.9 -99.99 -9.99
2019/08/15 10:30 PDT  -99.99 -99.99    5  171    8 -99.9 -99.9 -999.9 -9.9 -9.999 -99.9 -99.99 -9.99
2019/08/15 10:36 PDT  -99.99 -99.99    7  177    8 -99.9 -99.9 -999.9 -9.9 -9.999 -99.9 -99.99 -9.99
2019/08/15 10:42 PDT  -99.99 -99.99    6  173    8 -99.9 -99.9 -999.9 -9.9 -9.999 -99.9 -99.99 -9.99
2019/08/15 10:48 PDT  -99.99 -99.99    6  170    8 -99.9 -99.9 -999.9 -9.9 -9.999 -99.9 -99.99 -9.99
2019/08/15 10:54 PDT  -99.99 -99.99    5  165   10 -99.9 -99.9 -999.9 -9.9 -9.999 -99.9 -99.99 -9.99
2019/08/15 11:00 PDT  -99.99 -99.99    5  166    9 -99.9 -99.9 -999.9 -9.9 -9.999 -99.9 -99.99 -9.99
2019/08/15 11:06 PDT  -99.99 -99.99    5  179    8 -99.9 -99.9 -999.9 -9.9 -9.999 -99.9 -99.99 -9.99
2019/08/15 11:12 PDT  -99.99 -99.99    5  155    7 -99.9 -99.9 -999.9 -9.9 -9.999 -99.9 -99.99 -9.99
2019/08/15 11:18 PDT  -99.99 -99.99    6  185    8 -99.9 -99.9 -999.9 -9.9 -9.999 -99.9 -99.99 -9.99
2019/08/15 11:24 PDT  -99.99 -99.99    5  180    9 -99.9 -99.9 -999.9 -9.9 -9.999 -99.9 -99.99 -9.99
2019/08/15 11:30 PDT  -99.99 -99.99    8  174    9 -99.9 -99.9 -999.9 -9.9 -9.999 -99.9 -99.99 -9.99
2019/08/15 11:36 PDT  -99.99 -99.99    6  167    8 -99.9 -99.9 -999.9 -9.9 -9.999 -99.9 -99.99 -9.99
2019/08/15 11:42 PDT  -99.99 -99.99    6  160   10 -99.9 -99.9 -999.9 -9.9 -9.999 -99.9 -99.99 -9.99
2019/08/15 11:48 PDT  -99.99 -99.99    6  169    9 -99.9 -99.9 -999.9 -9.9 -9.999 -99.9 -99.99 -9.99
2019/08/15 11:54 PDT  -99.99 -99.99    7  172    9 -99.9 -99.9 -999.9 -9.9 -9.999 -99.9 -99.99 -9.99
2019/08/15 12:00 PDT  -99.99 -99.99    7  168    9 -99.9 -99.9 -999.9 -9.9 -9.999 -99.9 -99.99 -9.99
2019/08/15 12:06 PDT  -99.99 -99.99    7  193   10 -99.9 -99.9 -999.9 -9.9 -9.999 -99.9 -99.99 -9.99
2019/08/15 12:12 PDT  -99.99 -99.99    6  201    9 -99.9 -99.9 -999.9 -9.9 -9.999 -99.9 -99.99 -9.99
2019/08/15 12:18 PDT  -99.99 -99.99    6  187    9 -99.9 -99.9 -999.9 -9.9 -9.999 -99.9 -99.99 -9.99
2019/08/15 12:24 PDT  -99.99 -99.99    7  192    9 -99.9 -99.9 -999.9 -9.9 -9.999 -99.9 -99.99 -9.99
2019/08/15 12:30 PDT  -99.99 -99.99    6  196    9 -99.9 -99.9 -999.9 -9.9 -9.999 -99.9 -99.99 -9.99
2019/08/15 12:36 PDT  -99.99 -99.99    7  183   10 -99.9 -99.9 -999.9 -9.9 -9.999 -99.9 -99.99 -9.99
2019/08/15 12:42 PDT  -99.99 -99.99    5  186    9 -99.9 -99.9 -999.9 -9.9 -9.999 -99.9 -99.99 -9.99
2019/08/15 12:48 PDT  -99.99 -99.99    6  189    8 -99.9 -99.9 -999.9 -9.9 -9.999 -99.9 -99.99 -9.99
2019/08/15 12:54 PDT  -99.99 -99.99    7  189    8 -99.9 -99.9 -999.9 -9.9 -9.999 -99.9 -99.99 -9.99
2019/08/15 13:00 PDT  -99.99 -99.99    5  186    8 -99.9 -99.9 -999.9 -9.9 -9.999 -99.9 -99.99 -9.99
2019/08/15 13:06 PDT  -99.99 -99.99    5  160    7 -99.9 -99.9 -999.9 -9.9 -9.999 -99.9 -99.99 -9.99
2019/08/15 13:12 PDT  -99.99 -99.99    6  146    8 -99.9 -99.9 -999.9 -9.9 -9.999 -99.9 -99.99 -9.99
2019/08/15 13:18 PDT  -99.99 -99.99    7  147    9 -99.9 -99.9 -999.9 -9.9 -9.999 -99.9 -99.99 -9.99
2019/08/15 13:24 PDT  -99.99 -99.99    6  154    9 -99.9 -99.9 -999.9 -9.9 -9.999 -99.9 -99.99 -9.99
2019/08/15 13:30 PDT  -99.99 -99.99    6  148    8 -99.9 -99.9 -999.9 -9.9 -9.999 -99.9 -99.99 -9.99
2019/08/15 13:36 PDT  -99.99 -99.99    6  149    8 -99.9 -99.9 -999.9 -9.9 -9.999 -99.9 -99.99 -9.99
2019/08/15 13:42 PDT  -99.99 -99.99    6  139    8 -99.9 -99.9 -999.9 -9.9 -9.999 -99.9 -99.99 -9.99
2019/08/15 13:48 PDT  -99.99 -99.99    5  145    7 -99.9 -99.9 -999.9 -9.9 -9.999 -99.9 -99.99 -9.99
2019/08/15 13:54 PDT  -99.99 -99.99    4  139    6 -99.9 -99.9 -999.9 -9.9 -9.999 -99.9 -99.99 -9.99
2019/08/15 14:00 PDT  -99.99 -99.99    5  134    6 -99.9 -99.9 -999.9 -9.9 -9.999 -99.9 -99.99 -9.99
2019/08/15 14:06 PDT  -99.99 -99.99    5  145    7 -99.9 -99.9 -999.9 -9.9 -9.999 -99.9 -99.99 -9.99
2019/08/15 14:12 PDT  -99.99 -99.99    6  162    7 -99.9 -99.9 -999.9 -9.9 -9.999 -99.9 -99.99 -9.99
2019/08/15 14:18 PDT  -99.99 -99.99    4  165    6 -99.9 -99.9 -999.9 -9.9 -9.999 -99.9 -99.99 -9.99
2019/08/15 14:24 PDT  -99.99 -99.99    4  162    5 -99.9 -99.9 -999.9 -9.9 -9.999 -99.9 -99.99 -9.99
2019/08/15 14:30 PDT  -99.99 -99.99    4  157    6 -99.9 -99.9 -999.9 -9.9 -9.999 -99.9 -99.99 -9.99
2019/08/15 14:36 PDT  -99.99 -99.99    4  156    6 -99.9 -99.9 -999.9 -9.9 -9.999 -99.9 -99.99 -9.99
2019/08/15 14:42 PDT  -99.99 -99.99    2  131    6 -99.9 -99.9 -999.9 -9.9 -9.999 -99.9 -99.99 -9.99
2019/08/15 14:48 PDT  -99.99 -99.99    3  161    4 -99.9 -99.9 -999.9 -9.9 -9.999 -99.9 -99.99 -9.99
2019/08/15 14:54 PDT  -99.99 -99.99    6  326    7 -99.9 -99.9 -999.9 -9.9 -9.999 -99.9 -99.99 -9.99
2019/08/15 15:00 PDT  -99.99 -99.99    5  285    8 -99.9 -99.9 -999.9 -9.9 -9.999 -99.9 -99.99 -9.99
2019/08/15 15:06 PDT  -99.99 -99.99    6  293   10 -99.9 -99.9 -999.9 -9.9 -9.999 -99.9 -99.99 -9.99
2019/08/15 15:12 PDT  -99.99 -99.99    8  286   10 -99.9 -99.9 -999.9 -9.9 -9.999 -99.9 -99.99 -9.99
2019/08/15 15:18 PDT  -99.99 -99.99    7  280   10 -99.9 -99.9 -999.9 -9.9 -9.999 -99.9 -99.99 -9.99
2019/08/15 15:24 PDT  -99.99 -99.99    7  282   10 -99.9 -99.9 -999.9 -9.9 -9.999 -99.9 -99.99 -9.99
2019/08/15 15:30 PDT  -99.99 -99.99    5  293    7 -99.9 -99.9 -999.9 -9.9 -9.999 -99.9 -99.99 -9.99
2019/08/15 15:36 PDT  -99.99 -99.99    5  281    8 -99.9 -99.9 -999.9 -9.9 -9.999 -99.9 -99.99 -9.99
2019/08/15 15:42 PDT  -99.99 -99.99    4  290    7 -99.9 -99.9 -999.9 -9.9 -9.999 -99.9 -99.99 -9.99
2019/08/15 15:48 PDT  -99.99 -99.99    6  276    7 -99.9 -99.9 -999.9 -9.9 -9.999 -99.9 -99.99 -9.99
2019/08/15 15:54 PDT  -99.99 -99.99    5  274    6 -99.9 -99.9 -999.9 -9.9 -9.999 -99.9 -99.99 -9.99
2019/08/15 16:00 PDT  -99.99 -99.99    2  251    7 -99.9 -99.9 -999.9 -9.9 -9.999 -99.9 -99.99 -9.99
2019/08/15 16:06 PDT  -99.99 -99.99    4  270    5 -99.9 -99.9 -999.9 -9.9 -9.999 -99.9 -99.99 -9.99
2019/08/15 16:12 PDT  -99.99 -99.99    3  300    5 -99.9 -99.9 -999.9 -9.9 -9.999 -99.9 -99.99 -9.99
2019/08/15 16:18 PDT  -99.99 -99.99    2  307    4 -99.9 -99.9 -999.9 -9.9 -9.999 -99.9 -99.99 -9.99
2019/08/15 16:24 PDT  -99.99 -99.99    2  297    4 -99.9 -99.9 -999.9 -9.9 -9.999 -99.9 -99.99 -9.99
2019/08/15 16:30 PDT  -99.99 -99.99    3  272    4 -99.9 -99.9 -999.9 -9.9 -9.999 -99.9 -99.99 -9.99
2019/08/15 16:36 PDT  -99.99 -99.99    2  282    4 -99.9 -99.9 -999.9 -9.9 -9.999 -99.9 -99.99 -9.99
2019/08/15 16:42 PDT  -99.99 -99.99    1  133    2 -99.9 -99.9 -999.9 -9.9 -9.999 -99.9 -99.99 -9.99
2019/08/15 16:48 PDT  -99.99 -99.99    2  343    5 -99.9 -99.9 -999.9 -9.9 -9.999 -99.9 -99.99 -9.99
2019/08/15 16:54 PDT  -99.99 -99.99    5  335    7 -99.9 -99.9 -999.9 -9.9 -9.999 -99.9 -99.99 -9.99
2019/08/15 17:00 PDT  -99.99 -99.99    7  330   10 -99.9 -99.9 -999.9 -9.9 -9.999 -99.9 -99.99 -9.99
2019/08/15 17:06 PDT  -99.99 -99.99    9  336   10 -99.9 -99.9 -999.9 -9.9 -9.999 -99.9 -99.99 -9.99
2019/08/15 17:12 PDT  -99.99 -99.99    7  331   10 -99.9 -99.9 -999.9 -9.9 -9.999 -99.9 -99.99 -9.99
2019/08/15 17:18 PDT  -99.99 -99.99    7  330    8 -99.9 -99.9 -999.9 -9.9 -9.999 -99.9 -99.99 -9.99
2019/08/15 17:24 PDT  -99.99 -99.99    5  327   10 -99.9 -99.9 -999.9 -9.9 -9.999 -99.9 -99.99 -9.99
2019/08/15 17:30 PDT  -99.99 -99.99    5  333    9 -99.9 -99.9 -999.9 -9.9 -9.999 -99.9 -99.99 -9.99
2019/08/15 17:36 PDT  -99.99 -99.99    6  327    9 -99.9 -99.9 -999.9 -9.9 -9.999 -99.9 -99.99 -9.99
2019/08/15 17:42 PDT  -99.99 -99.99    8  337   10 -99.9 -99.9 -999.9 -9.9 -9.999 -99.9 -99.99 -9.99
2019/08/15 17:48 PDT  -99.99 -99.99    9  333   11 -99.9 -99.9 -999.9 -9.9 -9.999 -99.9 -99.99 -9.99
2019/08/15 17:54 PDT  -99.99 -99.99    7  334   11 -99.9 -99.9 -999.9 -9.9 -9.999 -99.9 -99.99 -9.99
2019/08/15 18:00 PDT  -99.99 -99.99    9  336   11 -99.9 -99.9 -999.9 -9.9 -9.999 -99.9 -99.99 -9.99
2019/08/15 18:06 PDT  -99.99 -99.99    8  337   10 -99.9 -99.9 -999.9 -9.9 -9.999 -99.9 -99.99 -9.99
2019/08/15 18:12 PDT  -99.99 -99.99    7  333    9 -99.9 -99.9 -999.9 -9.9 -9.999 -99.9 -99.99 -9.99
2019/08/15 18:18 PDT  -99.99 -99.99    6  332    8 -99.9 -99.9 -999.9 -9.9 -9.999 -99.9 -99.99 -9.99
2019/08/15 18:24 PDT  -99.99 -99.99    6  333    9 -99.9 -99.9 -999.9 -9.9 -9.999 -99.9 -99.99 -9.99
2019/08/15 18:30 PDT  -99.99 -99.99    5  334    7 -99.9 -99.9 -999.9 -9.9 -9.999 -99.9 -99.99 -9.99
2019/08/15 18:36 PDT  -99.99 -99.99    5  326    8 -99.9 -99.9 -999.9 -9.9 -9.999 -99.9 -99.99 -9.99
2019/08/15 18:42 PDT  -99.99 -99.99    7  329    8 -99.9 -99.9 -999.9 -9.9 -9.999 -99.9 -99.99 -9.99
2019/08/15 18:48 PDT  -99.99 -99.99    7  327    9 -99.9 -99.9 -999.9 -9.9 -9.999 -99.9 -99.99 -9.99
2019/08/15 18:54 PDT  -99.99 -99.99    7  326    9 -99.9 -99.9 -999.9 -9.9 -9.999 -99.9 -99.99 -9.99
2019/08/15 19:00 PDT  -99.99 -99.99    8  328    9 -99.9 -99.9 -999.9 -9.9 -9.999 -99.9 -99.99 -9.99
2019/08/15 19:06 PDT  -99.99 -99.99    7  334   10 -99.9 -99.9 -999.9 -9.9 -9.999 -99.9 -99.99 -9.99
2019/08/15 19:12 PDT  -99.99 -99.99    5  329    9 -99.9 -99.9 -999.9 -9.9 -9.999 -99.9 -99.99 -9.99
2019/08/15 19:18 PDT  -99.99 -99.99    6  323    8 -99.9 -99.9 -999.9 -9.9 -9.999 -99.9 -99.99 -9.99
2019/08/15 19:24 PDT  -99.99 -99.99    8  326    9 -99.9 -99.9 -999.9 -9.9 -9.999 -99.9 -99.99 -9.99
2019/08/15 19:30 PDT  -99.99 -99.99    6  327    8 -99.9 -99.9 -999.9 -9.9 -9.999 -99.9 -99.99 -9.99
2019/08/15 19:36 PDT  -99.99 -99.99    5  330    7 -99.9 -99.9 -999.9 -9.9 -9.999 -99.9 -99.99 -9.99
2019/08/15 19:42 PDT  -99.99 -99.99    8  330   10 -99.9 -99.9 -999.9 -9.9 -9.999 -99.9 -99.99 -9.99
2019/08/15 19:48 PDT  -99.99 -99.99    6  325    9 -99.9 -99.9 -999.9 -9.9 -9.999 -99.9 -99.99 -9.99
2019/08/15 19:54 PDT  -99.99 -99.99    6  322    8 -99.9 -99.9 -999.9 -9.9 -9.999 -99.9 -99.99 -9.99
2019/08/15 20:00 PDT  -99.99 -99.99    6  333    9 -99.9 -99.9 -999.9 -9.9 -9.999 -99.9 -99.99 -9.99
2019/08/15 20:06 PDT  -99.99 -99.99    8  324    9 -99.9 -99.9 -999.9 -9.9 -9.999 -99.9 -99.99 -9.99
2019/08/15 20:12 PDT  -99.99 -99.99    7  328   11 -99.9 -99.9 -999.9 -9.9 -9.999 -99.9 -99.99 -9.99
2019/08/15 20:18 PDT  -99.99 -99.99    5  318    9 -99.9 -99.9 -999.9 -9.9 -9.999 -99.9 -99.99 -9.99
2019/08/15 20:24 PDT  -99.99 -99.99    4  316    8 -99.9 -99.9 -999.9 -9.9 -9.999 -99.9 -99.99 -9.99
2019/08/15 20:30 PDT  -99.99 -99.99    7  329    8 -99.9 -99.9 -999.9 -9.9 -9.999 -99.9 -99.99 -9.99
2019/08/15 20:36 PDT  -99.99 -99.99    6  328    9 -99.9 -99.9 -999.9 -9.9 -9.999 -99.9 -99.99 -9.99
2019/08/15 20:42 PDT  -99.99 -99.99    3  316    7 -99.9 -99.9 -999.9 -9.9 -9.999 -99.9 -99.99 -9.99
2019/08/15 20:48 PDT  -99.99 -99.99    6  331    8 -99.9 -99.9 -999.9 -9.9 -9.999 -99.9 -99.99 -9.99
2019/08/15 20:54 PDT  -99.99 -99.99    1  297    7 -99.9 -99.9 -999.9 -9.9 -9.999 -99.9 -99.99 -9.99
2019/08/15 21:00 PDT  -99.99 -99.99    4  310    6 -99.9 -99.9 -999.9 -9.9 -9.999 -99.9 -99.99 -9.99
2019/08/15 21:06 PDT  -99.99 -99.99    6  324    8 -99.9 -99.9 -999.9 -9.9 -9.999 -99.9 -99.99 -9.99
2019/08/15 21:12 PDT  -99.99 -99.99    4  316    9 -99.9 -99.9 -999.9 -9.9 -9.999 -99.9 -99.99 -9.99
2019/08/15 21:18 PDT  -99.99 -99.99    8  324   10 -99.9 -99.9 -999.9 -9.9 -9.999 -99.9 -99.99 -9.99
2019/08/15 21:24 PDT  -99.99 -99.99    5  304    7 -99.9 -99.9 -999.9 -9.9 -9.999 -99.9 -99.99 -9.99
2019/08/15 21:30 PDT  -99.99 -99.99    4  286    6 -99.9 -99.9 -999.9 -9.9 -9.999 -99.9 -99.99 -9.99
2019/08/15 21:36 PDT  -99.99 -99.99    3  318    6 -99.9 -99.9 -999.9 -9.9 -9.999 -99.9 -99.99 -9.99
2019/08/15 21:42 PDT  -99.99 -99.99    4  291    5 -99.9 -99.9 -999.9 -9.9 -9.999 -99.9 -99.99 -9.99
2019/08/15 21:48 PDT  -99.99 -99.99    3  311    6 -99.9 -99.9 -999.9 -9.9 -9.999 -99.9 -99.99 -9.99
2019/08/15 21:54 PDT  -99.99 -99.99    3  311    4 -99.9 -99.9 -999.9 -9.9 -9.999 -99.9 -99.99 -9.99
2019/08/15 22:00 PDT  -99.99 -99.99    4  301    6 -99.9 -99.9 -999.9 -9.9 -9.999 -99.9 -99.99 -9.99
2019/08/15 22:06 PDT  -99.99 -99.99    2  294    6 -99.9 -99.9 -999.9 -9.9 -9.999 -99.9 -99.99 -9.99
2019/08/15 22:12 PDT  -99.99 -99.99    2  289    3 -99.9 -99.9 -999.9 -9.9 -9.999 -99.9 -99.99 -9.99
2019/08/15 22:18 PDT  -99.99 -99.99    1  303    3 -99.9 -99.9 -999.9 -9.9 -9.999 -99.9 -99.99 -9.99
2019/08/15 22:24 PDT  -99.99 -99.99    2  322    3 -99.9 -99.9 -999.9 -9.9 -9.999 -99.9 -99.99 -9.99
2019/08/15 22:30 PDT  -99.99 -99.99    3  300    4 -99.9 -99.9 -999.9 -9.9 -9.999 -99.9 -99.99 -9.99
2019/08/15 22:36 PDT  -99.99 -99.99    3  290    4 -99.9 -99.9 -999.9 -9.9 -9.999 -99.9 -99.99 -9.99
2019/08/15 22:42 PDT  -99.99 -99.99    2  314    5 -99.9 -99.9 -999.9 -9.9 -9.999 -99.9 -99.99 -9.99
2019/08/15 22:48 PDT  -99.99 -99.99    2  280    3 -99.9 -99.9 -999.9 -9.9 -9.999 -99.9 -99.99 -9.99
2019/08/15 22:54 PDT  -99.99 -99.99    2  268    3 -99.9 -99.9 -999.9 -9.9 -9.999 -99.9 -99.99 -9.99
2019/08/15 23:00 PDT  -99.99 -99.99    2  276    2 -99.9 -99.9 -999.9 -9.9 -9.999 -99.9 -99.99 -9.99
2019/08/15 23:06 PDT  -99.99 -99.99    1  274    2 -99.9 -99.9 -999.9 -9.9 -9.999 -99.9 -99.99 -9.99
2019/08/15 23:12 PDT  -99.99 -99.99    1  256    2 -99.9 -99.9 -999.9 -9.9 -9.999 -99.9 -99.99 -9.99
2019/08/15 23:18 PDT  -99.99 -99.99    1  257    2 -99.9 -99.9 -999.9 -9.9 -9.999 -99.9 -99.99 -9.99
2019/08/15 23:24 PDT  -99.99 -99.99    2  282    2 -99.9 -99.9 -999.9 -9.9 -9.999 -99.9 -99.99 -9.99
2019/08/15 23:30 PDT  -99.99 -99.99    2  263    2 -99.9 -99.9 -999.9 -9.9 -9.999 -99.9 -99.99 -9.99
2019/08/15 23:36 PDT  -99.99 -99.99    0  302    1 -99.9 -99.9 -999.9 -9.9 -9.999 -99.9 -99.99 -9.99
2019/08/15 23:42 PDT  -99.99 -99.99    0  294    1 -99.9 -99.9 -999.9 -9.9 -9.999 -99.9 -99.99 -9.99
2019/08/15 23:48 PDT  -99.99 -99.99    0  133    1 -99.9 -99.9 -999.9 -9.9 -9.999 -99.9 -99.99 -9.99
2019/08/15 23:54 PDT  -99.99 -99.99    1  162    2 -99.9 -99.9 -999.9 -9.9 -9.999 -99.9 -99.99 -9.99
2019/08/16 00:00 PDT  -99.99 -99.99    1  157    3 -99.9 -99.9 -999.9 -9.9 -9.999 -99.9 -99.99 -9.99
2019/08/16 00:06 PDT  -99.99 -99.99    3  214    4 -99.9 -99.9 -999.9 -9.9 -9.999 -99.9 -99.99 -9.99
2019/08/16 00:12 PDT  -99.99 -99.99    3  178    4 -99.9 -99.9 -999.9 -9.9 -9.999 -99.9 -99.99 -9.99
2019/08/16 00:18 PDT  -99.99 -99.99    3  158    4 -99.9 -99.9 -999.9 -9.9 -9.999 -99.9 -99.99 -9.99
2019/08/16 00:24 PDT  -99.99 -99.99    4  177    5 -99.9 -99.9 -999.9 -9.9 -9.999 -99.9 -99.99 -9.99
2019/08/16 00:30 PDT  -99.99 -99.99    3  158    5 -99.9 -99.9 -999.9 -9.9 -9.999 -99.9 -99.99 -9.99
2019/08/16 00:36 PDT  -99.99 -99.99    3  176    6 -99.9 -99.9 -999.9 -9.9 -9.999 -99.9 -99.99 -9.99
2019/08/16 00:42 PDT  -99.99 -99.99    4  172    5 -99.9 -99.9 -999.9 -9.9 -9.999 -99.9 -99.99 -9.99
2019/08/16 00:48 PDT  -99.99 -99.99    4  196    5 -99.9 -99.9 -999.9 -9.9 -9.999 -99.9 -99.99 -9.99
2019/08/16 00:54 PDT  -99.99 -99.99    2  191    6 -99.9 -99.9 -999.9 -9.9 -9.999 -99.9 -99.99 -9.99
2019/08/16 01:00 PDT  -99.99 -99.99    4  199    5 -99.9 -99.9 -999.9 -9.9 -9.999 -99.9 -99.99 -9.99
2019/08/16 01:06 PDT  -99.99 -99.99    5  193    5 -99.9 -99.9 -999.9 -9.9 -9.999 -99.9 -99.99 -9.99
2019/08/16 01:12 PDT  -99.99 -99.99    4  188    5 -99.9 -99.9 -999.9 -9.9 -9.999 -99.9 -99.99 -9.99
2019/08/16 01:18 PDT  -99.99 -99.99    3  176    4 -99.9 -99.9 -999.9 -9.9 -9.999 -99.9 -99.99 -9.99
2019/08/16 01:24 PDT  -99.99 -99.99    3  158    5 -99.9 -99.9 -999.9 -9.9 -9.999 -99.9 -99.99 -9.99
2019/08/16 01:30 PDT  -99.99 -99.99    4  183    4 -99.9 -99.9 -999.9 -9.9 -9.999 -99.9 -99.99 -9.99
2019/08/16 01:36 PDT  -99.99 -99.99    1  163    4 -99.9 -99.9 -999.9 -9.9 -9.999 -99.9 -99.99 -9.99
2019/08/16 01:42 PDT  -99.99 -99.99    3  141    4 -99.9 -99.9 -999.9 -9.9 -9.999 -99.9 -99.99 -9.99
2019/08/16 01:48 PDT  -99.99 -99.99    4  136    5 -99.9 -99.9 -999.9 -9.9 -9.999 -99.9 -99.99 -9.99
2019/08/16 01:54 PDT  -99.99 -99.99    4  148    5 -99.9 -99.9 -999.9 -9.9 -9.999 -99.9 -99.99 -9.99
2019/08/16 02:00 PDT  -99.99 -99.99    3  152    5 -99.9 -99.9 -999.9 -9.9 -9.999 -99.9 -99.99 -9.99
2019/08/16 02:06 PDT  -99.99 -99.99    4  133    5 -99.9 -99.9 -999.9 -9.9 -9.999 -99.9 -99.99 -9.99
2019/08/16 02:12 PDT  -99.99 -99.99    4  136    6 -99.9 -99.9 -999.9 -9.9 -9.999 -99.9 -99.99 -9.99
2019/08/16 02:18 PDT  -99.99 -99.99    5  161    7 -99.9 -99.9 -999.9 -9.9 -9.999 -99.9 -99.99 -9.99
2019/08/16 02:24 PDT  -99.99 -99.99    4  155    7 -99.9 -99.9 -999.9 -9.9 -9.999 -99.9 -99.99 -9.99
2019/08/16 02:30 PDT  -99.99 -99.99    4  142    6 -99.9 -99.9 -999.9 -9.9 -9.999 -99.9 -99.99 -9.99
2019/08/16 02:36 PDT  -99.99 -99.99    4  131    7 -99.9 -99.9 -999.9 -9.9 -9.999 -99.9 -99.99 -9.99
2019/08/16 02:42 PDT  -99.99 -99.99    6  176    7 -99.9 -99.9 -999.9 -9.9 -9.999 -99.9 -99.99 -9.99
2019/08/16 02:48 PDT  -99.99 -99.99    6  146    8 -99.9 -99.9 -999.9 -9.9 -9.999 -99.9 -99.99 -9.99
2019/08/16 02:54 PDT  -99.99 -99.99    2  122    5 -99.9 -99.9 -999.9 -9.9 -9.999 -99.9 -99.99 -9.99
2019/08/16 03:00 PDT  -99.99 -99.99    3  114    4 -99.9 -99.9 -999.9 -9.9 -9.999 -99.9 -99.99 -9.99
2019/08/16 03:06 PDT  -99.99 -99.99    2  140    4 -99.9 -99.9 -999.9 -9.9 -9.999 -99.9 -99.99 -9.99
2019/08/16 03:12 PDT  -99.99 -99.99    4  135    5 -99.9 -99.9 -999.9 -9.9 -9.999 -99.9 -99.99 -9.99
2019/08/16 03:18 PDT  -99.99 -99.99    4  131    5 -99.9 -99.9 -999.9 -9.9 -9.999 -99.9 -99.99 -9.99
2019/08/16 03:24 PDT  -99.99 -99.99    4  141    6 -99.9 -99.9 -999.9 -9.9 -9.999 -99.9 -99.99 -9.99
2019/08/16 03:30 PDT  -99.99 -99.99    3  143    4 -99.9 -99.9 -999.9 -9.9 -9.999 -99.9 -99.99 -9.99
2019/08/16 03:36 PDT  -99.99 -99.99    2  135    5 -99.9 -99.9 -999.9 -9.9 -9.999 -99.9 -99.99 -9.99
2019/08/16 03:42 PDT  -99.99 -99.99    3  152    5 -99.9 -99.9 -999.9 -9.9 -9.999 -99.9 -99.99 -9.99
2019/08/16 03:48 PDT  -99.99 -99.99    3  178    4 -99.9 -99.9 -999.9 -9.9 -9.999 -99.9 -99.99 -9.99
2019/08/16 03:54 PDT  -99.99 -99.99    5  168    6 -99.9 -99.9 -999.9 -9.9 -9.999 -99.9 -99.99 -9.99
2019/08/16 04:00 PDT  -99.99 -99.99    4  166    6 -99.9 -99.9 -999.9 -9.9 -9.999 -99.9 -99.99 -9.99
2019/08/16 04:06 PDT  -99.99 -99.99    3  139    6 -99.9 -99.9 -999.9 -9.9 -9.999 -99.9 -99.99 -9.99
2019/08/16 04:12 PDT  -99.99 -99.99    2  174    4 -99.9 -99.9 -999.9 -9.9 -9.999 -99.9 -99.99 -9.99
2019/08/16 04:18 PDT  -99.99 -99.99    5  143    6 -99.9 -99.9 -999.9 -9.9 -9.999 -99.9 -99.99 -9.99
2019/08/16 04:24 PDT  -99.99 -99.99    4  139    6 -99.9 -99.9 -999.9 -9.9 -9.999 -99.9 -99.99 -9.99
2019/08/16 04:30 PDT  -99.99 -99.99    3  119    5 -99.9 -99.9 -999.9 -9.9 -9.999 -99.9 -99.99 -9.99
2019/08/16 04:36 PDT  -99.99 -99.99    3  136    4 -99.9 -99.9 -999.9 -9.9 -9.999 -99.9 -99.99 -9.99
2019/08/16 04:42 PDT  -99.99 -99.99    4  116    5 -99.9 -99.9 -999.9 -9.9 -9.999 -99.9 -99.99 -9.99
2019/08/16 04:48 PDT  -99.99 -99.99    4  113    5 -99.9 -99.9 -999.9 -9.9 -9.999 -99.9 -99.99 -9.99
2019/08/16 04:54 PDT  -99.99 -99.99    3   78    4 -99.9 -99.9 -999.9 -9.9 -9.999 -99.9 -99.99 -9.99
2019/08/16 05:00 PDT  -99.99 -99.99    4  107    6 -99.9 -99.9 -999.9 -9.9 -9.999 -99.9 -99.99 -9.99
2019/08/16 05:06 PDT  -99.99 -99.99    4   93    5 -99.9 -99.9 -999.9 -9.9 -9.999 -99.9 -99.99 -9.99
2019/08/16 05:12 PDT  -99.99 -99.99    2   78    4 -99.9 -99.9 -999.9 -9.9 -9.999 -99.9 -99.99 -9.99
2019/08/16 05:18 PDT  -99.99 -99.99    3  107    6 -99.9 -99.9 -999.9 -9.9 -9.999 -99.9 -99.99 -9.99
2019/08/16 05:24 PDT  -99.99 -99.99    4   96    5 -99.9 -99.9 -999.9 -9.9 -9.999 -99.9 -99.99 -9.99
2019/08/16 05:30 PDT  -99.99 -99.99    4  119    5 -99.9 -99.9 -999.9 -9.9 -9.999 -99.9 -99.99 -9.99
2019/08/16 05:36 PDT  -99.99 -99.99    4  133    6 -99.9 -99.9 -999.9 -9.9 -9.999 -99.9 -99.99 -9.99
2019/08/16 05:42 PDT  -99.99 -99.99    4  135    5 -99.9 -99.9 -999.9 -9.9 -9.999 -99.9 -99.99 -9.99
2019/08/16 05:48 PDT  -99.99 -99.99    3  119    5 -99.9 -99.9 -999.9 -9.9 -9.999 -99.9 -99.99 -9.99
2019/08/16 05:54 PDT  -99.99 -99.99    4  110    5 -99.9 -99.9 -999.9 -9.9 -9.999 -99.9 -99.99 -9.99
2019/08/16 06:00 PDT  -99.99 -99.99    4  155    6 -99.9 -99.9 -999.9 -9.9 -9.999 -99.9 -99.99 -9.99
2019/08/16 06:06 PDT  -99.99 -99.99    5  141    6 -99.9 -99.9 -999.9 -9.9 -9.999 -99.9 -99.99 -9.99
2019/08/16 06:12 PDT  -99.99 -99.99    5  140    7 -99.9 -99.9 -999.9 -9.9 -9.999 -99.9 -99.99 -9.99
2019/08/16 06:18 PDT  -99.99 -99.99    4  148    6 -99.9 -99.9 -999.9 -9.9 -9.999 -99.9 -99.99 -9.99
2019/08/16 06:24 PDT  -99.99 -99.99    4  171    5 -99.9 -99.9 -999.9 -9.9 -9.999 -99.9 -99.99 -9.99
2019/08/16 06:30 PDT  -99.99 -99.99    3  126    5 -99.9 -99.9 -999.9 -9.9 -9.999 -99.9 -99.99 -9.99
2019/08/16 06:36 PDT  -99.99 -99.99    4  192    6 -99.9 -99.9 -999.9 -9.9 -9.999 -99.9 -99.99 -9.99
2019/08/16 06:42 PDT  -99.99 -99.99    3  206    5 -99.9 -99.9 -999.9 -9.9 -9.999 -99.9 -99.99 -9.99
2019/08/16 06:48 PDT  -99.99 -99.99    3  131    5 -99.9 -99.9 -999.9 -9.9 -9.999 -99.9 -99.99 -9.99
2019/08/16 06:54 PDT  -99.99 -99.99    1  146    6 -99.9 -99.9 -999.9 -9.9 -9.999 -99.9 -99.99 -9.99
2019/08/16 07:00 PDT  -99.99 -99.99    2   81    4 -99.9 -99.9 -999.9 -9.9 -9.999 -99.9 -99.99 -9.99
2019/08/16 07:06 PDT  -99.99 -99.99    3   98    5 -99.9 -99.9 -999.9 -9.9 -9.999 -99.9 -99.99 -9.99
2019/08/16 07:12 PDT  -99.99 -99.99    4  117    6 -99.9 -99.9 -999.9 -9.9 -9.999 -99.9 -99.99 -9.99
2019/08/16 07:18 PDT  -99.99 -99.99    1  164    5 -99.9 -99.9 -999.9 -9.9 -9.999 -99.9 -99.99 -9.99
2019/08/16 07:24 PDT  -99.99 -99.99    1   64    2 -99.9 -99.9 -999.9 -9.9 -9.999 -99.9 -99.99 -9.99
2019/08/16 07:30 PDT  -99.99 -99.99    3  144    4 -99.9 -99.9 -999.9 -9.9 -9.999 -99.9 -99.99 -9.99
2019/08/16 07:36 PDT  -99.99 -99.99    0  159    3 -99.9 -99.9 -999.9 -9.9 -9.999 -99.9 -99.99 -9.99
2019/08/16 07:42 PDT  -99.99 -99.99    3  114    4 -99.9 -99.9 -999.9 -9.9 -9.999 -99.9 -99.99 -9.99
2019/08/16 07:48 PDT  -99.99 -99.99    3  117    6 -99.9 -99.9 -999.9 -9.9 -9.999 -99.9 -99.99 -9.99
2019/08/16 07:54 PDT  -99.99 -99.99    4  104    6 -99.9 -99.9 -999.9 -9.9 -9.999 -99.9 -99.99 -9.99
2019/08/16 08:00 PDT  -99.99 -99.99    5   83    7 -99.9 -99.9 -999.9 -9.9 -9.999 -99.9 -99.99 -9.99
2019/08/16 08:06 PDT  -99.99 -99.99    5  104    6 -99.9 -99.9 -999.9 -9.9 -9.999 -99.9 -99.99 -9.99
2019/08/16 08:12 PDT  -99.99 -99.99    2  129    5 -99.9 -99.9 -999.9 -9.9 -9.999 -99.9 -99.99 -9.99
2019/08/16 08:18 PDT  -99.99 -99.99    3  130    5 -99.9 -99.9 -999.9 -9.9 -9.999 -99.9 -99.99 -9.99
2019/08/16 08:24 PDT  -99.99 -99.99    4  154    6 -99.9 -99.9 -999.9 -9.9 -9.999 -99.9 -99.99 -9.99
2019/08/16 08:30 PDT  -99.99 -99.99    5  131    5 -99.9 -99.9 -999.9 -9.9 -9.999 -99.9 -99.99 -9.99
2019/08/16 08:36 PDT  -99.99 -99.99    2  130    6 -99.9 -99.9 -999.9 -9.9 -9.999 -99.9 -99.99 -9.99
2019/08/16 08:42 PDT  -99.99 -99.99    3  112    5 -99.9 -99.9 -999.9 -9.9 -9.999 -99.9 -99.99 -9.99
2019/08/16 08:48 PDT  -99.99 -99.99    3  126    5 -99.9 -99.9 -999.9 -9.9 -9.999 -99.9 -99.99 -9.99
2019/08/16 08:54 PDT  -99.99 -99.99    3  113    5 -99.9 -99.9 -999.9 -9.9 -9.999 -99.9 -99.99 -9.99
2019/08/16 09:00 PDT  -99.99 -99.99    5  109    7 -99.9 -99.9 -999.9 -9.9 -9.999 -99.9 -99.99 -9.99
2019/08/16 09:06 PDT  -99.99 -99.99    5  138    7 -99.9 -99.9 -999.9 -9.9 -9.999 -99.9 -99.99 -9.99
2019/08/16 09:12 PDT  -99.99 -99.99    5  125    7 -99.9 -99.9 -999.9 -9.9 -9.999 -99.9 -99.99 -9.99
2019/08/16 09:18 PDT  -99.99 -99.99    5  113    7 -99.9 -99.9 -999.9 -9.9 -9.999 -99.9 -99.99 -9.99
2019/08/16 09:24 PDT  -99.99 -99.99    6  127    8 -99.9 -99.9 -999.9 -9.9 -9.999 -99.9 -99.99 -9.99
2019/08/16 09:30 PDT  -99.99 -99.99    5  153    8 -99.9 -99.9 -999.9 -9.9 -9.999 -99.9 -99.99 -9.99
2019/08/16 09:36 PDT  -99.99 -99.99    4  151    7 -99.9 -99.9 -999.9 -9.9 -9.999 -99.9 -99.99 -9.99
2019/08/16 09:42 PDT  -99.99 -99.99    5  143    8 -99.9 -99.9 -999.9 -9.9 -9.999 -99.9 -99.99 -9.99
2019/08/16 09:48 PDT  -99.99 -99.99    5  159    9 -99.9 -99.9 -999.9 -9.9 -9.999 -99.9 -99.99 -9.99
2019/08/16 09:54 PDT  -99.99 -99.99    5  140    9 -99.9 -99.9 -999.9 -9.9 -9.999 -99.9 -99.99 -9.99
2019/08/16 10:00 PDT  -99.99 -99.99    7  184    9 -99.9 -99.9 -999.9 -9.9 -9.999 -99.9 -99.99 -9.99
2019/08/16 10:06 PDT  -99.99 -99.99    7  175    9 -99.9 -99.9 -999.9 -9.9 -9.999 -99.9 -99.99 -9.99
2019/08/16 10:12 PDT  -99.99 -99.99    6  176    8 -99.9 -99.9 -999.9 -9.9 -9.999 -99.9 -99.99 -9.99
2019/08/16 10:18 PDT  -99.99 -99.99    6  194    8 -99.9 -99.9 -999.9 -9.9 -9.999 -99.9 -99.99 -9.99
2019/08/16 10:24 PDT  -99.99 -99.99    8  193    9 -99.9 -99.9 -999.9 -9.9 -9.999 -99.9 -99.99 -9.99
2019/08/16 10:30 PDT  -99.99 -99.99    6  191    9 -99.9 -99.9 -999.9 -9.9 -9.999 -99.9 -99.99 -9.99
2019/08/16 10:36 PDT  -99.99 -99.99    7  191    9 -99.9 -99.9 -999.9 -9.9 -9.999 -99.9 -99.99 -9.99
2019/08/16 10:42 PDT  -99.99 -99.99    8  194   11 -99.9 -99.9 -999.9 -9.9 -9.999 -99.9 -99.99 -9.99
2019/08/16 10:48 PDT  -99.99 -99.99    7  178    9 -99.9 -99.9 -999.9 -9.9 -9.999 -99.9 -99.99 -9.99
2019/08/16 10:54 PDT  -99.99 -99.99    7  192    9 -99.9 -99.9 -999.9 -9.9 -9.999 -99.9 -99.99 -9.99
2019/08/16 11:00 PDT  -99.99 -99.99    7  200   10 -99.9 -99.9 -999.9 -9.9 -9.999 -99.9 -99.99 -9.99
2019/08/16 11:06 PDT  -99.99 -99.99    7  192   11 -99.9 -99.9 -999.9 -9.9 -9.999 -99.9 -99.99 -9.99
2019/08/16 11:12 PDT  -99.99 -99.99    9  194   11 -99.9 -99.9 -999.9 -9.9 -9.999 -99.9 -99.99 -9.99
2019/08/16 11:18 PDT  -99.99 -99.99    7  193   12 -99.9 -99.9 -999.9 -9.9 -9.999 -99.9 -99.99 -9.99
2019/08/16 11:24 PDT  -99.99 -99.99    8  195   10 -99.9 -99.9 -999.9 -9.9 -9.999 -99.9 -99.99 -9.99
2019/08/16 11:30 PDT  -99.99 -99.99    7  187   11 -99.9 -99.9 -999.9 -9.9 -9.999 -99.9 -99.99 -9.99
2019/08/16 11:36 PDT  -99.99 -99.99    9  189   11 -99.9 -99.9 -999.9 -9.9 -9.999 -99.9 -99.99 -9.99
2019/08/16 11:42 PDT  -99.99 -99.99    9  188   12 -99.9 -99.9 -999.9 -9.9 -9.999 -99.9 -99.99 -9.99
2019/08/16 11:48 PDT  -99.99 -99.99    9  190   11 -99.9 -99.9 -999.9 -9.9 -9.999 -99.9 -99.99 -9.99
2019/08/16 11:54 PDT  -99.99 -99.99    7  184   10 -99.9 -99.9 -999.9 -9.9 -9.999 -99.9 -99.99 -9.99
2019/08/16 12:00 PDT  -99.99 -99.99    7  182   10 -99.9 -99.9 -999.9 -9.9 -9.999 -99.9 -99.99 -9.99
2019/08/16 12:06 PDT  -99.99 -99.99    9  171   11 -99.9 -99.9 -999.9 -9.9 -9.999 -99.9 -99.99 -9.99
2019/08/16 12:12 PDT  -99.99 -99.99    9  179   12 -99.9 -99.9 -999.9 -9.9 -9.999 -99.9 -99.99 -9.99
2019/08/16 12:18 PDT  -99.99 -99.99    8  177   12 -99.9 -99.9 -999.9 -9.9 -9.999 -99.9 -99.99 -9.99
2019/08/16 12:24 PDT  -99.99 -99.99    7  173   11 -99.9 -99.9 -999.9 -9.9 -9.999 -99.9 -99.99 -9.99
2019/08/16 12:30 PDT  -99.99 -99.99    7  169   12 -99.9 -99.9 -999.9 -9.9 -9.999 -99.9 -99.99 -9.99
2019/08/16 12:36 PDT  -99.99 -99.99    9  173   13 -99.9 -99.9 -999.9 -9.9 -9.999 -99.9 -99.99 -9.99
2019/08/16 12:42 PDT  -99.99 -99.99    8  174   12 -99.9 -99.9 -999.9 -9.9 -9.999 -99.9 -99.99 -9.99
2019/08/16 12:48 PDT  -99.99 -99.99   10  172   12 -99.9 -99.9 -999.9 -9.9 -9.999 -99.9 -99.99 -9.99
2019/08/16 12:54 PDT  -99.99 -99.99    8  176   13 -99.9 -99.9 -999.9 -9.9 -9.999 -99.9 -99.99 -9.99
2019/08/16 13:00 PDT  -99.99 -99.99    8  173   11 -99.9 -99.9 -999.9 -9.9 -9.999 -99.9 -99.99 -9.99
2019/08/16 13:06 PDT  -99.99 -99.99    9  175   12 -99.9 -99.9 -999.9 -9.9 -9.999 -99.9 -99.99 -9.99
2019/08/16 13:12 PDT  -99.99 -99.99    8  173   11 -99.9 -99.9 -999.9 -9.9 -9.999 -99.9 -99.99 -9.99
2019/08/16 13:18 PDT  -99.99 -99.99    9  175   11 -99.9 -99.9 -999.9 -9.9 -9.999 -99.9 -99.99 -9.99
2019/08/16 13:24 PDT  -99.99 -99.99    7  189   12 -99.9 -99.9 -999.9 -9.9 -9.999 -99.9 -99.99 -9.99
2019/08/16 13:30 PDT  -99.99 -99.99    8  174   10 -99.9 -99.9 -999.9 -9.9 -9.999 -99.9 -99.99 -9.99
2019/08/16 13:36 PDT  -99.99 -99.99    7  168    9 -99.9 -99.9 -999.9 -9.9 -9.999 -99.9 -99.99 -9.99
2019/08/16 13:42 PDT  -99.99 -99.99    8  173    9 -99.9 -99.9 -999.9 -9.9 -9.999 -99.9 -99.99 -9.99
2019/08/16 13:48 PDT  -99.99 -99.99    7  165   11 -99.9 -99.9 -999.9 -9.9 -9.999 -99.9 -99.99 -9.99
2019/08/16 13:54 PDT  -99.99 -99.99    7  167    9 -99.9 -99.9 -999.9 -9.9 -9.999 -99.9 -99.99 -9.99
2019/08/16 14:00 PDT  -99.99 -99.99    8  175   10 -99.9 -99.9 -999.9 -9.9 -9.999 -99.9 -99.99 -9.99
2019/08/16 14:06 PDT  -99.99 -99.99    7  179   10 -99.9 -99.9 -999.9 -9.9 -9.999 -99.9 -99.99 -9.99
2019/08/16 14:12 PDT  -99.99 -99.99    5  178    9 -99.9 -99.9 -999.9 -9.9 -9.999 -99.9 -99.99 -9.99
2019/08/16 14:18 PDT  -99.99 -99.99    6  169    8 -99.9 -99.9 -999.9 -9.9 -9.999 -99.9 -99.99 -9.99
2019/08/16 14:24 PDT  -99.99 -99.99    8  170   11 -99.9 -99.9 -999.9 -9.9 -9.999 -99.9 -99.99 -9.99
2019/08/16 14:30 PDT  -99.99 -99.99    8  162   10 -99.9 -99.9 -999.9 -9.9 -9.999 -99.9 -99.99 -9.99
2019/08/16 14:36 PDT  -99.99 -99.99    7  160   11 -99.9 -99.9 -999.9 -9.9 -9.999 -99.9 -99.99 -9.99
2019/08/16 14:42 PDT  -99.99 -99.99    8  152   10 -99.9 -99.9 -999.9 -9.9 -9.999 -99.9 -99.99 -9.99
2019/08/16 14:48 PDT  -99.99 -99.99    7  156   10 -99.9 -99.9 -999.9 -9.9 -9.999 -99.9 -99.99 -9.99
2019/08/16 14:54 PDT  -99.99 -99.99    6  151    9 -99.9 -99.9 -999.9 -9.9 -9.999 -99.9 -99.99 -9.99
2019/08/16 15:00 PDT  -99.99 -99.99    7  147   11 -99.9 -99.9 -999.9 -9.9 -9.999 -99.9 -99.99 -9.99
2019/08/16 15:06 PDT  -99.99 -99.99    6  157   10 -99.9 -99.9 -999.9 -9.9 -9.999 -99.9 -99.99 -9.99
2019/08/16 15:12 PDT  -99.99 -99.99    5  179    9 -99.9 -99.9 -999.9 -9.9 -9.999 -99.9 -99.99 -9.99
2019/08/16 15:18 PDT  -99.99 -99.99    5  173    9 -99.9 -99.9 -999.9 -9.9 -9.999 -99.9 -99.99 -9.99
2019/08/16 15:24 PDT  -99.99 -99.99    5  166    9 -99.9 -99.9 -999.9 -9.9 -9.999 -99.9 -99.99 -9.99
2019/08/16 15:30 PDT  -99.99 -99.99    6  171    8 -99.9 -99.9 -999.9 -9.9 -9.999 -99.9 -99.99 -9.99
2019/08/16 15:36 PDT  -99.99 -99.99    5  151    8 -99.9 -99.9 -999.9 -9.9 -9.999 -99.9 -99.99 -9.99
2019/08/16 15:42 PDT  -99.99 -99.99    6  151    7 -99.9 -99.9 -999.9 -9.9 -9.999 -99.9 -99.99 -9.99
2019/08/16 15:48 PDT  -99.99 -99.99    7  152    9 -99.9 -99.9 -999.9 -9.9 -9.999 -99.9 -99.99 -9.99
2019/08/16 15:54 PDT  -99.99 -99.99    5  148    8 -99.9 -99.9 -999.9 -9.9 -9.999 -99.9 -99.99 -9.99
2019/08/16 16:00 PDT  -99.99 -99.99    6  155    7 -99.9 -99.9 -999.9 -9.9 -9.999 -99.9 -99.99 -9.99
2019/08/16 16:06 PDT  -99.99 -99.99    6  155    8 -99.9 -99.9 -999.9 -9.9 -9.999 -99.9 -99.99 -9.99
2019/08/16 16:12 PDT  -99.99 -99.99    6  131    8 -99.9 -99.9 -999.9 -9.9 -9.999 -99.9 -99.99 -9.99
2019/08/16 16:18 PDT  -99.99 -99.99    7  132    8 -99.9 -99.9 -999.9 -9.9 -9.999 -99.9 -99.99 -9.99
2019/08/16 16:24 PDT  -99.99 -99.99    7  134    8 -99.9 -99.9 -999.9 -9.9 -9.999 -99.9 -99.99 -9.99
2019/08/16 16:30 PDT  -99.99 -99.99    6  132    8 -99.9 -99.9 -999.9 -9.9 -9.999 -99.9 -99.99 -9.99
2019/08/16 16:36 PDT  -99.99 -99.99    6  136    8 -99.9 -99.9 -999.9 -9.9 -9.999 -99.9 -99.99 -9.99
2019/08/16 16:42 PDT  -99.99 -99.99    5  148    8 -99.9 -99.9 -999.9 -9.9 -9.999 -99.9 -99.99 -9.99
2019/08/16 16:48 PDT  -99.99 -99.99    6  141    8 -99.9 -99.9 -999.9 -9.9 -9.999 -99.9 -99.99 -9.99
2019/08/16 16:54 PDT  -99.99 -99.99    6  173    9 -99.9 -99.9 -999.9 -9.9 -9.999 -99.9 -99.99 -9.99
2019/08/16 17:00 PDT  -99.99 -99.99    4  168    9 -99.9 -99.9 -999.9 -9.9 -9.999 -99.9 -99.99 -9.99
2019/08/16 17:06 PDT  -99.99 -99.99    6  168    8 -99.9 -99.9 -999.9 -9.9 -9.999 -99.9 -99.99 -9.99
2019/08/16 17:12 PDT  -99.99 -99.99    3  197    7 -99.9 -99.9 -999.9 -9.9 -9.999 -99.9 -99.99 -9.99
2019/08/16 17:18 PDT  -99.99 -99.99    4  209    5 -99.9 -99.9 -999.9 -9.9 -9.999 -99.9 -99.99 -9.99
2019/08/16 17:24 PDT  -99.99 -99.99    1  210    5 -99.9 -99.9 -999.9 -9.9 -9.999 -99.9 -99.99 -9.99
2019/08/16 17:30 PDT  -99.99 -99.99    1  107    4 -99.9 -99.9 -999.9 -9.9 -9.999 -99.9 -99.99 -9.99
2019/08/16 17:36 PDT  -99.99 -99.99    3  168    6 -99.9 -99.9 -999.9 -9.9 -9.999 -99.9 -99.99 -9.99
2019/08/16 17:42 PDT  -99.99 -99.99    5  152    7 -99.9 -99.9 -999.9 -9.9 -9.999 -99.9 -99.99 -9.99
2019/08/16 17:48 PDT  -99.99 -99.99    5  173    7 -99.9 -99.9 -999.9 -9.9 -9.999 -99.9 -99.99 -9.99
2019/08/16 17:54 PDT  -99.99 -99.99    4  170    7 -99.9 -99.9 -999.9 -9.9 -9.999 -99.9 -99.99 -9.99
2019/08/16 18:00 PDT  -99.99 -99.99    1  159    6 -99.9 -99.9 -999.9 -9.9 -9.999 -99.9 -99.99 -9.99
2019/08/16 18:06 PDT  -99.99 -99.99    2  165    4 -99.9 -99.9 -999.9 -9.9 -9.999 -99.9 -99.99 -9.99
2019/08/16 18:12 PDT  -99.99 -99.99    3  190    5 -99.9 -99.9 -999.9 -9.9 -9.999 -99.9 -99.99 -9.99
2019/08/16 18:18 PDT  -99.99 -99.99    4  278    6 -99.9 -99.9 -999.9 -9.9 -9.999 -99.9 -99.99 -9.99
2019/08/16 18:24 PDT  -99.99 -99.99    5  290    7 -99.9 -99.9 -999.9 -9.9 -9.999 -99.9 -99.99 -9.99
2019/08/16 18:30 PDT  -99.99 -99.99    3  281    7 -99.9 -99.9 -999.9 -9.9 -9.999 -99.9 -99.99 -9.99
2019/08/16 18:36 PDT  -99.99 -99.99    4  297    7 -99.9 -99.9 -999.9 -9.9 -9.999 -99.9 -99.99 -9.99
2019/08/16 18:42 PDT  -99.99 -99.99    5  321    7 -99.9 -99.9 -999.9 -9.9 -9.999 -99.9 -99.99 -9.99
2019/08/16 18:48 PDT  -99.99 -99.99    4  327    9 -99.9 -99.9 -999.9 -9.9 -9.999 -99.9 -99.99 -9.99
2019/08/16 18:54 PDT  -99.99 -99.99    4  316    7 -99.9 -99.9 -999.9 -9.9 -9.999 -99.9 -99.99 -9.99
2019/08/16 19:00 PDT  -99.99 -99.99    4  326    6 -99.9 -99.9 -999.9 -9.9 -9.999 -99.9 -99.99 -9.99
2019/08/16 19:06 PDT  -99.99 -99.99    5  311    6 -99.9 -99.9 -999.9 -9.9 -9.999 -99.9 -99.99 -9.99
2019/08/16 19:12 PDT  -99.99 -99.99    4  326    6 -99.9 -99.9 -999.9 -9.9 -9.999 -99.9 -99.99 -9.99
2019/08/16 19:18 PDT  -99.99 -99.99    4  285    7 -99.9 -99.9 -999.9 -9.9 -9.999 -99.9 -99.99 -9.99
2019/08/16 19:24 PDT  -99.99 -99.99    3  327    5 -99.9 -99.9 -999.9 -9.9 -9.999 -99.9 -99.99 -9.99
2019/08/16 19:30 PDT  -99.99 -99.99    4  296    6 -99.9 -99.9 -999.9 -9.9 -9.999 -99.9 -99.99 -9.99
2019/08/16 19:36 PDT  -99.99 -99.99    3  320    5 -99.9 -99.9 -999.9 -9.9 -9.999 -99.9 -99.99 -9.99
2019/08/16 19:42 PDT  -99.99 -99.99    3  328    6 -99.9 -99.9 -999.9 -9.9 -9.999 -99.9 -99.99 -9.99
2019/08/16 19:48 PDT  -99.99 -99.99    4  337    5 -99.9 -99.9 -999.9 -9.9 -9.999 -99.9 -99.99 -9.99
2019/08/16 19:54 PDT  -99.99 -99.99    4  341    6 -99.9 -99.9 -999.9 -9.9 -9.999 -99.9 -99.99 -9.99
2019/08/16 20:00 PDT  -99.99 -99.99    4  333    6 -99.9 -99.9 -999.9 -9.9 -9.999 -99.9 -99.99 -9.99
2019/08/16 20:06 PDT  -99.99 -99.99    4  336    6 -99.9 -99.9 -999.9 -9.9 -9.999 -99.9 -99.99 -9.99
2019/08/16 20:12 PDT  -99.99 -99.99    4  329    5 -99.9 -99.9 -999.9 -9.9 -9.999 -99.9 -99.99 -9.99
2019/08/16 20:18 PDT  -99.99 -99.99    4  350    5 -99.9 -99.9 -999.9 -9.9 -9.999 -99.9 -99.99 -9.99
2019/08/16 20:24 PDT  -99.99 -99.99    4  333    6 -99.9 -99.9 -999.9 -9.9 -9.999 -99.9 -99.99 -9.99
2019/08/16 20:30 PDT  -99.99 -99.99    3  359    5 -99.9 -99.9 -999.9 -9.9 -9.999 -99.9 -99.99 -9.99
2019/08/16 20:36 PDT  -99.99 -99.99    3  345    5 -99.9 -99.9 -999.9 -9.9 -9.999 -99.9 -99.99 -9.99
2019/08/16 20:42 PDT  -99.99 -99.99    3  358    5 -99.9 -99.9 -999.9 -9.9 -9.999 -99.9 -99.99 -9.99
2019/08/16 20:48 PDT  -99.99 -99.99    3  339    6 -99.9 -99.9 -999.9 -9.9 -9.999 -99.9 -99.99 -9.99
2019/08/16 20:54 PDT  -99.99 -99.99    3  351    5 -99.9 -99.9 -999.9 -9.9 -9.999 -99.9 -99.99 -9.99
2019/08/16 21:00 PDT  -99.99 -99.99    3  336    4 -99.9 -99.9 -999.9 -9.9 -9.999 -99.9 -99.99 -9.99
2019/08/16 21:06 PDT  -99.99 -99.99    3  341    4 -99.9 -99.9 -999.9 -9.9 -9.999 -99.9 -99.99 -9.99
2019/08/16 21:12 PDT  -99.99 -99.99    2  353    4 -99.9 -99.9 -999.9 -9.9 -9.999 -99.9 -99.99 -9.99
2019/08/16 21:18 PDT  -99.99 -99.99    3  325    4 -99.9 -99.9 -999.9 -9.9 -9.999 -99.9 -99.99 -9.99
2019/08/16 21:24 PDT  -99.99 -99.99    2  342    4 -99.9 -99.9 -999.9 -9.9 -9.999 -99.9 -99.99 -9.99
2019/08/16 21:30 PDT  -99.99 -99.99    3  322    4 -99.9 -99.9 -999.9 -9.9 -9.999 -99.9 -99.99 -9.99
2019/08/16 21:36 PDT  -99.99 -99.99    1   13    4 -99.9 -99.9 -999.9 -9.9 -9.999 -99.9 -99.99 -9.99
2019/08/16 21:42 PDT  -99.99 -99.99    1  354    3 -99.9 -99.9 -999.9 -9.9 -9.999 -99.9 -99.99 -9.99
2019/08/16 21:48 PDT  -99.99 -99.99    2  330    3 -99.9 -99.9 -999.9 -9.9 -9.999 -99.9 -99.99 -9.99
2019/08/16 21:54 PDT  -99.99 -99.99    1    6    4 -99.9 -99.9 -999.9 -9.9 -9.999 -99.9 -99.99 -9.99
2019/08/16 22:00 PDT  -99.99 -99.99    2    3    4 -99.9 -99.9 -999.9 -9.9 -9.999 -99.9 -99.99 -9.99
2019/08/16 22:06 PDT  -99.99 -99.99    3   36    4 -99.9 -99.9 -999.9 -9.9 -9.999 -99.9 -99.99 -9.99
2019/08/16 22:12 PDT  -99.99 -99.99    3   48    4 -99.9 -99.9 -999.9 -9.9 -9.999 -99.9 -99.99 -9.99
2019/08/16 22:18 PDT  -99.99 -99.99    2   63    5 -99.9 -99.9 -999.9 -9.9 -9.999 -99.9 -99.99 -9.99
2019/08/16 22:24 PDT  -99.99 -99.99    3  111    4 -99.9 -99.9 -999.9 -9.9 -9.999 -99.9 -99.99 -9.99
2019/08/16 22:30 PDT  -99.99 -99.99    2  104    3 -99.9 -99.9 -999.9 -9.9 -9.999 -99.9 -99.99 -9.99
2019/08/16 22:36 PDT  -99.99 -99.99    2   99    4 -99.9 -99.9 -999.9 -9.9 -9.999 -99.9 -99.99 -9.99
2019/08/16 22:42 PDT  -99.99 -99.99    3  113    5 -99.9 -99.9 -999.9 -9.9 -9.999 -99.9 -99.99 -9.99
2019/08/16 22:48 PDT  -99.99 -99.99    4  136    5 -99.9 -99.9 -999.9 -9.9 -9.999 -99.9 -99.99 -9.99
2019/08/16 22:54 PDT  -99.99 -99.99    5  136    7 -99.9 -99.9 -999.9 -9.9 -9.999 -99.9 -99.99 -9.99
2019/08/16 23:00 PDT  -99.99 -99.99    6  153    8 -99.9 -99.9 -999.9 -9.9 -9.999 -99.9 -99.99 -9.99
2019/08/16 23:06 PDT  -99.99 -99.99    6  150    8 -99.9 -99.9 -999.9 -9.9 -9.999 -99.9 -99.99 -9.99
2019/08/16 23:12 PDT  -99.99 -99.99    5  138    7 -99.9 -99.9 -999.9 -9.9 -9.999 -99.9 -99.99 -9.99
2019/08/16 23:18 PDT  -99.99 -99.99    4  130    6 -99.9 -99.9 -999.9 -9.9 -9.999 -99.9 -99.99 -9.99
2019/08/16 23:24 PDT  -99.99 -99.99    4  140    7 -99.9 -99.9 -999.9 -9.9 -9.999 -99.9 -99.99 -9.99
2019/08/16 23:30 PDT  -99.99 -99.99    4  148    6 -99.9 -99.9 -999.9 -9.9 -9.999 -99.9 -99.99 -9.99
2019/08/16 23:36 PDT  -99.99 -99.99    6  138    7 -99.9 -99.9 -999.9 -9.9 -9.999 -99.9 -99.99 -9.99
2019/08/16 23:42 PDT  -99.99 -99.99    3  132    6 -99.9 -99.9 -999.9 -9.9 -9.999 -99.9 -99.99 -9.99
2019/08/16 23:48 PDT  -99.99 -99.99    2  142    3 -99.9 -99.9 -999.9 -9.9 -9.999 -99.9 -99.99 -9.99
2019/08/16 23:54 PDT  -99.99 -99.99    3  136    5 -99.9 -99.9 -999.9 -9.9 -9.999 -99.9 -99.99 -9.99
2019/08/17 00:00 PDT  -99.99 -99.99    3  135    7 -99.9 -99.9 -999.9 -9.9 -9.999 -99.9 -99.99 -9.99
2019/08/17 00:06 PDT  -99.99 -99.99    3  132    4 -99.9 -99.9 -999.9 -9.9 -9.999 -99.9 -99.99 -9.99
2019/08/17 00:12 PDT  -99.99 -99.99    4  149    7 -99.9 -99.9 -999.9 -9.9 -9.999 -99.9 -99.99 -9.99
2019/08/17 00:18 PDT  -99.99 -99.99    2  127    3 -99.9 -99.9 -999.9 -9.9 -9.999 -99.9 -99.99 -9.99
2019/08/17 00:24 PDT  -99.99 -99.99    4  138    5 -99.9 -99.9 -999.9 -9.9 -9.999 -99.9 -99.99 -9.99
2019/08/17 00:30 PDT  -99.99 -99.99    3  127    6 -99.9 -99.9 -999.9 -9.9 -9.999 -99.9 -99.99 -9.99
2019/08/17 00:36 PDT  -99.99 -99.99    2  144    3 -99.9 -99.9 -999.9 -9.9 -9.999 -99.9 -99.99 -9.99
2019/08/17 00:42 PDT  -99.99 -99.99    4  124    5 -99.9 -99.9 -999.9 -9.9 -9.999 -99.9 -99.99 -9.99
2019/08/17 00:48 PDT  -99.99 -99.99    2  120    4 -99.9 -99.9 -999.9 -9.9 -9.999 -99.9 -99.99 -9.99
2019/08/17 00:54 PDT  -99.99 -99.99    3  146    5 -99.9 -99.9 -999.9 -9.9 -9.999 -99.9 -99.99 -9.99
2019/08/17 01:00 PDT  -99.99 -99.99    6  114    7 -99.9 -99.9 -999.9 -9.9 -9.999 -99.9 -99.99 -9.99
2019/08/17 01:06 PDT  -99.99 -99.99    3  120    6 -99.9 -99.9 -999.9 -9.9 -9.999 -99.9 -99.99 -9.99
2019/08/17 01:12 PDT  -99.99 -99.99    5  104    7 -99.9 -99.9 -999.9 -9.9 -9.999 -99.9 -99.99 -9.99
2019/08/17 01:18 PDT  -99.99 -99.99    3  124    7 -99.9 -99.9 -999.9 -9.9 -9.999 -99.9 -99.99 -9.99
2019/08/17 01:24 PDT  -99.99 -99.99    5  104    7 -99.9 -99.9 -999.9 -9.9 -9.999 -99.9 -99.99 -9.99
2019/08/17 01:30 PDT  -99.99 -99.99    4  138    6 -99.9 -99.9 -999.9 -9.9 -9.999 -99.9 -99.99 -9.99
2019/08/17 01:36 PDT  -99.99 -99.99    6  123    7 -99.9 -99.9 -999.9 -9.9 -9.999 -99.9 -99.99 -9.99
2019/08/17 01:42 PDT  -99.99 -99.99    6  110    8 -99.9 -99.9 -999.9 -9.9 -9.999 -99.9 -99.99 -9.99
2019/08/17 01:48 PDT  -99.99 -99.99    5   94    8 -99.9 -99.9 -999.9 -9.9 -9.999 -99.9 -99.99 -9.99
2019/08/17 01:54 PDT  -99.99 -99.99    2   71    6 -99.9 -99.9 -999.9 -9.9 -9.999 -99.9 -99.99 -9.99
2019/08/17 02:00 PDT  -99.99 -99.99    2  147    3 -99.9 -99.9 -999.9 -9.9 -9.999 -99.9 -99.99 -9.99
2019/08/17 02:06 PDT  -99.99 -99.99    4   83    6 -99.9 -99.9 -999.9 -9.9 -9.999 -99.9 -99.99 -9.99
2019/08/17 02:12 PDT  -99.99 -99.99    4  115    6 -99.9 -99.9 -999.9 -9.9 -9.999 -99.9 -99.99 -9.99
2019/08/17 02:18 PDT  -99.99 -99.99    6  139    8 -99.9 -99.9 -999.9 -9.9 -9.999 -99.9 -99.99 -9.99
2019/08/17 02:24 PDT  -99.99 -99.99    5  133    7 -99.9 -99.9 -999.9 -9.9 -9.999 -99.9 -99.99 -9.99
2019/08/17 02:30 PDT  -99.99 -99.99    7  145    9 -99.9 -99.9 -999.9 -9.9 -9.999 -99.9 -99.99 -9.99
2019/08/17 02:36 PDT  -99.99 -99.99    6  126    9 -99.9 -99.9 -999.9 -9.9 -9.999 -99.9 -99.99 -9.99
2019/08/17 02:42 PDT  -99.99 -99.99    5   79    8 -99.9 -99.9 -999.9 -9.9 -9.999 -99.9 -99.99 -9.99
2019/08/17 02:48 PDT  -99.99 -99.99    6   86    8 -99.9 -99.9 -999.9 -9.9 -9.999 -99.9 -99.99 -9.99
2019/08/17 02:54 PDT  -99.99 -99.99    6  128   10 -99.9 -99.9 -999.9 -9.9 -9.999 -99.9 -99.99 -9.99
2019/08/17 03:00 PDT  -99.99 -99.99    4  141    7 -99.9 -99.9 -999.9 -9.9 -9.999 -99.9 -99.99 -9.99
2019/08/17 03:06 PDT  -99.99 -99.99    6  149    7 -99.9 -99.9 -999.9 -9.9 -9.999 -99.9 -99.99 -9.99
2019/08/17 03:12 PDT  -99.99 -99.99    4  147    7 -99.9 -99.9 -999.9 -9.9 -9.999 -99.9 -99.99 -9.99
2019/08/17 03:18 PDT  -99.99 -99.99    5  163    7 -99.9 -99.9 -999.9 -9.9 -9.999 -99.9 -99.99 -9.99
2019/08/17 03:24 PDT  -99.99 -99.99    6  138    8 -99.9 -99.9 -999.9 -9.9 -9.999 -99.9 -99.99 -9.99
2019/08/17 03:30 PDT  -99.99 -99.99    5  141    8 -99.9 -99.9 -999.9 -9.9 -9.999 -99.9 -99.99 -9.99
2019/08/17 03:36 PDT  -99.99 -99.99    6  134    9 -99.9 -99.9 -999.9 -9.9 -9.999 -99.9 -99.99 -9.99
2019/08/17 03:42 PDT  -99.99 -99.99    3  136    8 -99.9 -99.9 -999.9 -9.9 -9.999 -99.9 -99.99 -9.99
2019/08/17 03:48 PDT  -99.99 -99.99    2  107    5 -99.9 -99.9 -999.9 -9.9 -9.999 -99.9 -99.99 -9.99
2019/08/17 03:54 PDT  -99.99 -99.99    5  147    7 -99.9 -99.9 -999.9 -9.9 -9.999 -99.9 -99.99 -9.99
2019/08/17 04:00 PDT  -99.99 -99.99    6  158    9 -99.9 -99.9 -999.9 -9.9 -9.999 -99.9 -99.99 -9.99
2019/08/17 04:06 PDT  -99.99 -99.99    5  146    8 -99.9 -99.9 -999.9 -9.9 -9.999 -99.9 -99.99 -9.99
2019/08/17 04:12 PDT  -99.99 -99.99    5  157    7 -99.9 -99.9 -999.9 -9.9 -9.999 -99.9 -99.99 -9.99
2019/08/17 04:18 PDT  -99.99 -99.99    6  147    7 -99.9 -99.9 -999.9 -9.9 -9.999 -99.9 -99.99 -9.99
2019/08/17 04:24 PDT  -99.99 -99.99    5  156    8 -99.9 -99.9 -999.9 -9.9 -9.999 -99.9 -99.99 -9.99
2019/08/17 04:30 PDT  -99.99 -99.99    6  165    7 -99.9 -99.9 -999.9 -9.9 -9.999 -99.9 -99.99 -9.99
2019/08/17 04:36 PDT  -99.99 -99.99    4  153    6 -99.9 -99.9 -999.9 -9.9 -9.999 -99.9 -99.99 -9.99
2019/08/17 04:42 PDT  -99.99 -99.99    5  146    6 -99.9 -99.9 -999.9 -9.9 -9.999 -99.9 -99.99 -9.99
2019/08/17 04:48 PDT  -99.99 -99.99    3  133    4 -99.9 -99.9 -999.9 -9.9 -9.999 -99.9 -99.99 -9.99
2019/08/17 04:54 PDT  -99.99 -99.99    3  163    4 -99.9 -99.9 -999.9 -9.9 -9.999 -99.9 -99.99 -9.99
2019/08/17 05:00 PDT  -99.99 -99.99    6  162    8 -99.9 -99.9 -999.9 -9.9 -9.999 -99.9 -99.99 -9.99
2019/08/17 05:06 PDT  -99.99 -99.99    5  150    7 -99.9 -99.9 -999.9 -9.9 -9.999 -99.9 -99.99 -9.99
2019/08/17 05:12 PDT  -99.99 -99.99    4  127    6 -99.9 -99.9 -999.9 -9.9 -9.999 -99.9 -99.99 -9.99
2019/08/17 05:18 PDT  -99.99 -99.99    5  159    7 -99.9 -99.9 -999.9 -9.9 -9.999 -99.9 -99.99 -9.99
2019/08/17 05:24 PDT  -99.99 -99.99    5  156    6 -99.9 -99.9 -999.9 -9.9 -9.999 -99.9 -99.99 -9.99
2019/08/17 05:30 PDT  -99.99 -99.99    3  150    7 -99.9 -99.9 -999.9 -9.9 -9.999 -99.9 -99.99 -9.99
2019/08/17 05:36 PDT  -99.99 -99.99    6  144    8 -99.9 -99.9 -999.9 -9.9 -9.999 -99.9 -99.99 -9.99
2019/08/17 05:42 PDT  -99.99 -99.99    5  147    9 -99.9 -99.9 -999.9 -9.9 -9.999 -99.9 -99.99 -9.99
2019/08/17 05:48 PDT  -99.99 -99.99    5  157    6 -99.9 -99.9 -999.9 -9.9 -9.999 -99.9 -99.99 -9.99
2019/08/17 05:54 PDT  -99.99 -99.99    5  146    8 -99.9 -99.9 -999.9 -9.9 -9.999 -99.9 -99.99 -9.99
2019/08/17 06:00 PDT  -99.99 -99.99    4  139    6 -99.9 -99.9 -999.9 -9.9 -9.999 -99.9 -99.99 -9.99
2019/08/17 06:06 PDT  -99.99 -99.99    3  172    5 -99.9 -99.9 -999.9 -9.9 -9.999 -99.9 -99.99 -9.99
2019/08/17 06:12 PDT  -99.99 -99.99    3  164    5 -99.9 -99.9 -999.9 -9.9 -9.999 -99.9 -99.99 -9.99
2019/08/17 06:18 PDT  -99.99 -99.99    4  150    6 -99.9 -99.9 -999.9 -9.9 -9.999 -99.9 -99.99 -9.99
2019/08/17 06:24 PDT  -99.99 -99.99    2  139    5 -99.9 -99.9 -999.9 -9.9 -9.999 -99.9 -99.99 -9.99
2019/08/17 06:30 PDT  -99.99 -99.99    3  180    5 -99.9 -99.9 -999.9 -9.9 -9.999 -99.9 -99.99 -9.99
2019/08/17 06:36 PDT  -99.99 -99.99    3  158    6 -99.9 -99.9 -999.9 -9.9 -9.999 -99.9 -99.99 -9.99
2019/08/17 06:42 PDT  -99.99 -99.99    2  139    5 -99.9 -99.9 -999.9 -9.9 -9.999 -99.9 -99.99 -9.99
2019/08/17 06:48 PDT  -99.99 -99.99    5  158    7 -99.9 -99.9 -999.9 -9.9 -9.999 -99.9 -99.99 -9.99
2019/08/17 06:54 PDT  -99.99 -99.99    3  155    5 -99.9 -99.9 -999.9 -9.9 -9.999 -99.9 -99.99 -9.99
2019/08/17 07:00 PDT  -99.99 -99.99    4  174    5 -99.9 -99.9 -999.9 -9.9 -9.999 -99.9 -99.99 -9.99
2019/08/17 07:06 PDT  -99.99 -99.99    3  156    6 -99.9 -99.9 -999.9 -9.9 -9.999 -99.9 -99.99 -9.99
2019/08/17 07:12 PDT  -99.99 -99.99    5  154    7 -99.9 -99.9 -999.9 -9.9 -9.999 -99.9 -99.99 -9.99
2019/08/17 07:18 PDT  -99.99 -99.99    7  138    9 -99.9 -99.9 -999.9 -9.9 -9.999 -99.9 -99.99 -9.99
2019/08/17 07:24 PDT  -99.99 -99.99    4  139    9 -99.9 -99.9 -999.9 -9.9 -9.999 -99.9 -99.99 -9.99
2019/08/17 07:30 PDT  -99.99 -99.99    6  106    7 -99.9 -99.9 -999.9 -9.9 -9.999 -99.9 -99.99 -9.99
2019/08/17 07:36 PDT  -99.99 -99.99    5   87    8 -99.9 -99.9 -999.9 -9.9 -9.999 -99.9 -99.99 -9.99
2019/08/17 07:42 PDT  -99.99 -99.99    7  111    9 -99.9 -99.9 -999.9 -9.9 -9.999 -99.9 -99.99 -9.99
2019/08/17 07:48 PDT  -99.99 -99.99    4  135    8 -99.9 -99.9 -999.9 -9.9 -9.999 -99.9 -99.99 -9.99
2019/08/17 07:54 PDT  -99.99 -99.99    5  134    6 -99.9 -99.9 -999.9 -9.9 -9.999 -99.9 -99.99 -9.99
2019/08/17 08:00 PDT  -99.99 -99.99    4  114    7 -99.9 -99.9 -999.9 -9.9 -9.999 -99.9 -99.99 -9.99
2019/08/17 08:06 PDT  -99.99 -99.99    6  106    9 -99.9 -99.9 -999.9 -9.9 -9.999 -99.9 -99.99 -9.99
2019/08/17 08:12 PDT  -99.99 -99.99    6  113    8 -99.9 -99.9 -999.9 -9.9 -9.999 -99.9 -99.99 -9.99
2019/08/17 08:18 PDT  -99.99 -99.99    6  129    8 -99.9 -99.9 -999.9 -9.9 -9.999 -99.9 -99.99 -9.99
2019/08/17 08:24 PDT  -99.99 -99.99    3  138    5 -99.9 -99.9 -999.9 -9.9 -9.999 -99.9 -99.99 -9.99
2019/08/17 08:30 PDT  -99.99 -99.99    4  166    5 -99.9 -99.9 -999.9 -9.9 -9.999 -99.9 -99.99 -9.99
2019/08/17 08:36 PDT  -99.99 -99.99    3  173    5 -99.9 -99.9 -999.9 -9.9 -9.999 -99.9 -99.99 -9.99
2019/08/17 08:42 PDT  -99.99 -99.99    2  174    6 -99.9 -99.9 -999.9 -9.9 -9.999 -99.9 -99.99 -9.99
2019/08/17 08:48 PDT  -99.99 -99.99    5  158    7 -99.9 -99.9 -999.9 -9.9 -9.999 -99.9 -99.99 -9.99
2019/08/17 08:54 PDT  -99.99 -99.99    5  158    7 -99.9 -99.9 -999.9 -9.9 -9.999 -99.9 -99.99 -9.99
2019/08/17 09:00 PDT  -99.99 -99.99    6  161    7 -99.9 -99.9 -999.9 -9.9 -9.999 -99.9 -99.99 -9.99
2019/08/17 09:06 PDT  -99.99 -99.99    4  165    6 -99.9 -99.9 -999.9 -9.9 -9.999 -99.9 -99.99 -9.99
2019/08/17 09:12 PDT  -99.99 -99.99    4  182    6 -99.9 -99.9 -999.9 -9.9 -9.999 -99.9 -99.99 -9.99
2019/08/17 09:18 PDT  -99.99 -99.99    4  175    6 -99.9 -99.9 -999.9 -9.9 -9.999 -99.9 -99.99 -9.99
2019/08/17 09:24 PDT  -99.99 -99.99    6  156    8 -99.9 -99.9 -999.9 -9.9 -9.999 -99.9 -99.99 -9.99
2019/08/17 09:30 PDT  -99.99 -99.99    4  144    7 -99.9 -99.9 -999.9 -9.9 -9.999 -99.9 -99.99 -9.99
2019/08/17 09:36 PDT  -99.99 -99.99    5  163    8 -99.9 -99.9 -999.9 -9.9 -9.999 -99.9 -99.99 -9.99
2019/08/17 09:42 PDT  -99.99 -99.99    5  149    7 -99.9 -99.9 -999.9 -9.9 -9.999 -99.9 -99.99 -9.99
2019/08/17 09:48 PDT  -99.99 -99.99    5  181    7 -99.9 -99.9 -999.9 -9.9 -9.999 -99.9 -99.99 -9.99
2019/08/17 09:54 PDT  -99.99 -99.99    4  154    8 -99.9 -99.9 -999.9 -9.9 -9.999 -99.9 -99.99 -9.99
2019/08/17 10:00 PDT  -99.99 -99.99    4  166    5 -99.9 -99.9 -999.9 -9.9 -9.999 -99.9 -99.99 -9.99
2019/08/17 10:06 PDT  -99.99 -99.99    6  160    8 -99.9 -99.9 -999.9 -9.9 -9.999 -99.9 -99.99 -9.99
2019/08/17 10:12 PDT  -99.99 -99.99    4  163    6 -99.9 -99.9 -999.9 -9.9 -9.999 -99.9 -99.99 -9.99
2019/08/17 10:18 PDT  -99.99 -99.99    5  170    8 -99.9 -99.9 -999.9 -9.9 -9.999 -99.9 -99.99 -9.99
2019/08/17 10:24 PDT  -99.99 -99.99    7  171    9 -99.9 -99.9 -999.9 -9.9 -9.999 -99.9 -99.99 -9.99
2019/08/17 10:30 PDT  -99.99 -99.99    6  177    9 -99.9 -99.9 -999.9 -9.9 -9.999 -99.9 -99.99 -9.99
2019/08/17 10:36 PDT  -99.99 -99.99    5  172    8 -99.9 -99.9 -999.9 -9.9 -9.999 -99.9 -99.99 -9.99
2019/08/17 10:42 PDT  -99.99 -99.99    5  166    9 -99.9 -99.9 -999.9 -9.9 -9.999 -99.9 -99.99 -9.99
2019/08/17 10:48 PDT  -99.99 -99.99    6  158    9 -99.9 -99.9 -999.9 -9.9 -9.999 -99.9 -99.99 -9.99
2019/08/17 10:54 PDT  -99.99 -99.99    6  171    9 -99.9 -99.9 -999.9 -9.9 -9.999 -99.9 -99.99 -9.99
2019/08/17 11:00 PDT  -99.99 -99.99    7  182   10 -99.9 -99.9 -999.9 -9.9 -9.999 -99.9 -99.99 -9.99
2019/08/17 11:06 PDT  -99.99 -99.99    6  161   10 -99.9 -99.9 -999.9 -9.9 -9.999 -99.9 -99.99 -9.99
2019/08/17 11:12 PDT  -99.99 -99.99    7  167   10 -99.9 -99.9 -999.9 -9.9 -9.999 -99.9 -99.99 -9.99
2019/08/17 11:18 PDT  -99.99 -99.99    7  194   10 -99.9 -99.9 -999.9 -9.9 -9.999 -99.9 -99.99 -9.99
2019/08/17 11:24 PDT  -99.99 -99.99    7  191   10 -99.9 -99.9 -999.9 -9.9 -9.999 -99.9 -99.99 -9.99
2019/08/17 11:30 PDT  -99.99 -99.99    6  160   10 -99.9 -99.9 -999.9 -9.9 -9.999 -99.9 -99.99 -9.99
2019/08/17 11:36 PDT  -99.99 -99.99    6  199   10 -99.9 -99.9 -999.9 -9.9 -9.999 -99.9 -99.99 -9.99
2019/08/17 11:42 PDT  -99.99 -99.99    9  194   11 -99.9 -99.9 -999.9 -9.9 -9.999 -99.9 -99.99 -9.99
2019/08/17 11:48 PDT  -99.99 -99.99    9  173   11 -99.9 -99.9 -999.9 -9.9 -9.999 -99.9 -99.99 -9.99
2019/08/17 11:54 PDT  -99.99 -99.99    6  181   10 -99.9 -99.9 -999.9 -9.9 -9.999 -99.9 -99.99 -9.99
2019/08/17 12:00 PDT  -99.99 -99.99    6  189   10 -99.9 -99.9 -999.9 -9.9 -9.999 -99.9 -99.99 -9.99
2019/08/17 12:06 PDT  -99.99 -99.99    9  168   12 -99.9 -99.9 -999.9 -9.9 -9.999 -99.9 -99.99 -9.99
2019/08/17 12:12 PDT  -99.99 -99.99    8  177   12 -99.9 -99.9 -999.9 -9.9 -9.999 -99.9 -99.99 -9.99
2019/08/17 12:18 PDT  -99.99 -99.99    9  175   11 -99.9 -99.9 -999.9 -9.9 -9.999 -99.9 -99.99 -9.99
2019/08/17 12:24 PDT  -99.99 -99.99    7  181   11 -99.9 -99.9 -999.9 -9.9 -9.999 -99.9 -99.99 -9.99
2019/08/17 12:30 PDT  -99.99 -99.99   11  182   13 -99.9 -99.9 -999.9 -9.9 -9.999 -99.9 -99.99 -9.99
2019/08/17 12:36 PDT  -99.99 -99.99    8  172   11 -99.9 -99.9 -999.9 -9.9 -9.999 -99.9 -99.99 -9.99
2019/08/17 12:42 PDT  -99.99 -99.99    9  169   12 -99.9 -99.9 -999.9 -9.9 -9.999 -99.9 -99.99 -9.99
2019/08/17 12:48 PDT  -99.99 -99.99    7  193   11 -99.9 -99.9 -999.9 -9.9 -9.999 -99.9 -99.99 -9.99
2019/08/17 12:54 PDT  -99.99 -99.99    8  190   12 -99.9 -99.9 -999.9 -9.9 -9.999 -99.9 -99.99 -9.99
2019/08/17 13:00 PDT  -99.99 -99.99   10  190   12 -99.9 -99.9 -999.9 -9.9 -9.999 -99.9 -99.99 -9.99
2019/08/17 13:06 PDT  -99.99 -99.99    8  181   12 -99.9 -99.9 -999.9 -9.9 -9.999 -99.9 -99.99 -9.99
2019/08/17 13:12 PDT  -99.99 -99.99    7  197   12 -99.9 -99.9 -999.9 -9.9 -9.999 -99.9 -99.99 -9.99
2019/08/17 13:18 PDT  -99.99 -99.99    9  195   13 -99.9 -99.9 -999.9 -9.9 -9.999 -99.9 -99.99 -9.99
2019/08/17 13:24 PDT  -99.99 -99.99   10  194   11 -99.9 -99.9 -999.9 -9.9 -9.999 -99.9 -99.99 -9.99
2019/08/17 13:30 PDT  -99.99 -99.99    8  176   11 -99.9 -99.9 -999.9 -9.9 -9.999 -99.9 -99.99 -9.99
2019/08/17 13:36 PDT  -99.99 -99.99    7  190   11 -99.9 -99.9 -999.9 -9.9 -9.999 -99.9 -99.99 -9.99
2019/08/17 13:42 PDT  -99.99 -99.99    8  191   12 -99.9 -99.9 -999.9 -9.9 -9.999 -99.9 -99.99 -9.99
2019/08/17 13:48 PDT  -99.99 -99.99    7  178   10 -99.9 -99.9 -999.9 -9.9 -9.999 -99.9 -99.99 -9.99
2019/08/17 13:54 PDT  -99.99 -99.99   10  175   11 -99.9 -99.9 -999.9 -9.9 -9.999 -99.9 -99.99 -9.99
2019/08/17 14:00 PDT  -99.99 -99.99    7  180   11 -99.9 -99.9 -999.9 -9.9 -9.999 -99.9 -99.99 -9.99
2019/08/17 14:06 PDT  -99.99 -99.99    9  175   11 -99.9 -99.9 -999.9 -9.9 -9.999 -99.9 -99.99 -9.99
2019/08/17 14:12 PDT  -99.99 -99.99    9  187   11 -99.9 -99.9 -999.9 -9.9 -9.999 -99.9 -99.99 -9.99
2019/08/17 14:18 PDT  -99.99 -99.99    8  176   12 -99.9 -99.9 -999.9 -9.9 -9.999 -99.9 -99.99 -9.99
2019/08/17 14:24 PDT  -99.99 -99.99   10  175   12 -99.9 -99.9 -999.9 -9.9 -9.999 -99.9 -99.99 -9.99
2019/08/17 14:30 PDT  -99.99 -99.99   10  171   11 -99.9 -99.9 -999.9 -9.9 -9.999 -99.9 -99.99 -9.99
2019/08/17 14:36 PDT  -99.99 -99.99    8  184   11 -99.9 -99.9 -999.9 -9.9 -9.999 -99.9 -99.99 -9.99
2019/08/17 14:42 PDT  -99.99 -99.99    7  192   11 -99.9 -99.9 -999.9 -9.9 -9.999 -99.9 -99.99 -9.99
2019/08/17 14:48 PDT  -99.99 -99.99    9  190   11 -99.9 -99.9 -999.9 -9.9 -9.999 -99.9 -99.99 -9.99
2019/08/17 14:54 PDT  -99.99 -99.99    9  197   12 -99.9 -99.9 -999.9 -9.9 -9.999 -99.9 -99.99 -9.99
2019/08/17 15:00 PDT  -99.99 -99.99    8  191   11 -99.9 -99.9 -999.9 -9.9 -9.999 -99.9 -99.99 -9.99
2019/08/17 15:06 PDT  -99.99 -99.99    9  192   10 -99.9 -99.9 -999.9 -9.9 -9.999 -99.9 -99.99 -9.99
2019/08/17 15:12 PDT  -99.99 -99.99    8  196   10 -99.9 -99.9 -999.9 -9.9 -9.999 -99.9 -99.99 -9.99
2019/08/17 15:18 PDT  -99.99 -99.99    7  186   10 -99.9 -99.9 -999.9 -9.9 -9.999 -99.9 -99.99 -9.99
2019/08/17 15:24 PDT  -99.99 -99.99    8  188   12 -99.9 -99.9 -999.9 -9.9 -9.999 -99.9 -99.99 -9.99
2019/08/17 15:30 PDT  -99.99 -99.99    9  194   11 -99.9 -99.9 -999.9 -9.9 -9.999 -99.9 -99.99 -9.99
2019/08/17 15:36 PDT  -99.99 -99.99    8  195   10 -99.9 -99.9 -999.9 -9.9 -9.999 -99.9 -99.99 -9.99
2019/08/17 15:42 PDT  -99.99 -99.99    8  193   10 -99.9 -99.9 -999.9 -9.9 -9.999 -99.9 -99.99 -9.99
2019/08/17 15:48 PDT  -99.99 -99.99    8  188   10 -99.9 -99.9 -999.9 -9.9 -9.999 -99.9 -99.99 -9.99
2019/08/17 15:54 PDT  -99.99 -99.99    9  201   11 -99.9 -99.9 -999.9 -9.9 -9.999 -99.9 -99.99 -9.99
2019/08/17 16:00 PDT  -99.99 -99.99    7  198   11 -99.9 -99.9 -999.9 -9.9 -9.999 -99.9 -99.99 -9.99
2019/08/17 16:06 PDT  -99.99 -99.99    7  200   10 -99.9 -99.9 -999.9 -9.9 -9.999 -99.9 -99.99 -9.99
2019/08/17 16:12 PDT  -99.99 -99.99    7  188   11 -99.9 -99.9 -999.9 -9.9 -9.999 -99.9 -99.99 -9.99
2019/08/17 16:18 PDT  -99.99 -99.99    7  194   10 -99.9 -99.9 -999.9 -9.9 -9.999 -99.9 -99.99 -9.99
2019/08/17 16:24 PDT  -99.99 -99.99    7  193    9 -99.9 -99.9 -999.9 -9.9 -9.999 -99.9 -99.99 -9.99
2019/08/17 16:30 PDT  -99.99 -99.99    8  193   10 -99.9 -99.9 -999.9 -9.9 -9.999 -99.9 -99.99 -9.99
2019/08/17 16:36 PDT  -99.99 -99.99    6  196    9 -99.9 -99.9 -999.9 -9.9 -9.999 -99.9 -99.99 -9.99
2019/08/17 16:42 PDT  -99.99 -99.99    8  185   10 -99.9 -99.9 -999.9 -9.9 -9.999 -99.9 -99.99 -9.99
2019/08/17 16:48 PDT  -99.99 -99.99    6  187   10 -99.9 -99.9 -999.9 -9.9 -9.999 -99.9 -99.99 -9.99
2019/08/17 16:54 PDT  -99.99 -99.99    8  179   10 -99.9 -99.9 -999.9 -9.9 -9.999 -99.9 -99.99 -9.99
2019/08/17 17:00 PDT  -99.99 -99.99    7  181    9 -99.9 -99.9 -999.9 -9.9 -9.999 -99.9 -99.99 -9.99
2019/08/17 17:06 PDT  -99.99 -99.99    7  184    9 -99.9 -99.9 -999.9 -9.9 -9.999 -99.9 -99.99 -9.99
2019/08/17 17:12 PDT  -99.99 -99.99    7  188    9 -99.9 -99.9 -999.9 -9.9 -9.999 -99.9 -99.99 -9.99
2019/08/17 17:18 PDT  -99.99 -99.99    7  180    9 -99.9 -99.9 -999.9 -9.9 -9.999 -99.9 -99.99 -9.99
2019/08/17 17:24 PDT  -99.99 -99.99    6  215    8 -99.9 -99.9 -999.9 -9.9 -9.999 -99.9 -99.99 -9.99
2019/08/17 17:30 PDT  -99.99 -99.99    5  198    7 -99.9 -99.9 -999.9 -9.9 -9.999 -99.9 -99.99 -9.99
2019/08/17 17:36 PDT  -99.99 -99.99    7  219    9 -99.9 -99.9 -999.9 -9.9 -9.999 -99.9 -99.99 -9.99
2019/08/17 17:42 PDT  -99.99 -99.99    8  207   11 -99.9 -99.9 -999.9 -9.9 -9.999 -99.9 -99.99 -9.99
2019/08/17 17:48 PDT  -99.99 -99.99    7  204    9 -99.9 -99.9 -999.9 -9.9 -9.999 -99.9 -99.99 -9.99
2019/08/17 17:54 PDT  -99.99 -99.99    4  210    9 -99.9 -99.9 -999.9 -9.9 -9.999 -99.9 -99.99 -9.99
2019/08/17 18:00 PDT  -99.99 -99.99    5  226    8 -99.9 -99.9 -999.9 -9.9 -9.999 -99.9 -99.99 -9.99
2019/08/17 18:06 PDT  -99.99 -99.99    3  235    9 -99.9 -99.9 -999.9 -9.9 -9.999 -99.9 -99.99 -9.99
2019/08/17 18:12 PDT  -99.99 -99.99    5  276    7 -99.9 -99.9 -999.9 -9.9 -9.999 -99.9 -99.99 -9.99
2019/08/17 18:18 PDT  -99.99 -99.99    6  292    7 -99.9 -99.9 -999.9 -9.9 -9.999 -99.9 -99.99 -9.99
2019/08/17 18:24 PDT  -99.99 -99.99    4  305    7 -99.9 -99.9 -999.9 -9.9 -9.999 -99.9 -99.99 -9.99
2019/08/17 18:30 PDT  -99.99 -99.99    6  284    8 -99.9 -99.9 -999.9 -9.9 -9.999 -99.9 -99.99 -9.99
2019/08/17 18:36 PDT  -99.99 -99.99    4  325    9 -99.9 -99.9 -999.9 -9.9 -9.999 -99.9 -99.99 -9.99
2019/08/17 18:42 PDT  -99.99 -99.99    4  291    7 -99.9 -99.9 -999.9 -9.9 -9.999 -99.9 -99.99 -9.99
2019/08/17 18:48 PDT  -99.99 -99.99    7  284    9 -99.9 -99.9 -999.9 -9.9 -9.999 -99.9 -99.99 -9.99
2019/08/17 18:54 PDT  -99.99 -99.99    5  290    8 -99.9 -99.9 -999.9 -9.9 -9.999 -99.9 -99.99 -9.99
2019/08/17 19:00 PDT  -99.99 -99.99    4  298    7 -99.9 -99.9 -999.9 -9.9 -9.999 -99.9 -99.99 -9.99
2019/08/17 19:06 PDT  -99.99 -99.99    4  296    6 -99.9 -99.9 -999.9 -9.9 -9.999 -99.9 -99.99 -9.99
2019/08/17 19:12 PDT  -99.99 -99.99    5  293    7 -99.9 -99.9 -999.9 -9.9 -9.999 -99.9 -99.99 -9.99
2019/08/17 19:18 PDT  -99.99 -99.99    4  300    7 -99.9 -99.9 -999.9 -9.9 -9.999 -99.9 -99.99 -9.99
2019/08/17 19:24 PDT  -99.99 -99.99    6  300    7 -99.9 -99.9 -999.9 -9.9 -9.999 -99.9 -99.99 -9.99
2019/08/17 19:30 PDT  -99.99 -99.99    5  284    8 -99.9 -99.9 -999.9 -9.9 -9.999 -99.9 -99.99 -9.99
2019/08/17 19:36 PDT  -99.99 -99.99    4  295    7 -99.9 -99.9 -999.9 -9.9 -9.999 -99.9 -99.99 -9.99
2019/08/17 19:42 PDT  -99.99 -99.99    5  299    6 -99.9 -99.9 -999.9 -9.9 -9.999 -99.9 -99.99 -9.99
2019/08/17 19:48 PDT  -99.99 -99.99    4  299    6 -99.9 -99.9 -999.9 -9.9 -9.999 -99.9 -99.99 -9.99
2019/08/17 19:54 PDT  -99.99 -99.99    2  296    6 -99.9 -99.9 -999.9 -9.9 -9.999 -99.9 -99.99 -9.99
2019/08/17 20:00 PDT  -99.99 -99.99    4  278    6 -99.9 -99.9 -999.9 -9.9 -9.999 -99.9 -99.99 -9.99
2019/08/17 20:06 PDT  -99.99 -99.99    3  276    5 -99.9 -99.9 -999.9 -9.9 -9.999 -99.9 -99.99 -9.99
2019/08/17 20:12 PDT  -99.99 -99.99    2  276    5 -99.9 -99.9 -999.9 -9.9 -9.999 -99.9 -99.99 -9.99
2019/08/17 20:18 PDT  -99.99 -99.99    2  269    4 -99.9 -99.9 -999.9 -9.9 -9.999 -99.9 -99.99 -9.99
2019/08/17 20:24 PDT  -99.99 -99.99    3  288    4 -99.9 -99.9 -999.9 -9.9 -9.999 -99.9 -99.99 -9.99
2019/08/17 20:30 PDT  -99.99 -99.99    2  264    3 -99.9 -99.9 -999.9 -9.9 -9.999 -99.9 -99.99 -9.99
2019/08/17 20:36 PDT  -99.99 -99.99    3  316    4 -99.9 -99.9 -999.9 -9.9 -9.999 -99.9 -99.99 -9.99
2019/08/17 20:42 PDT  -99.99 -99.99    1  303    3 -99.9 -99.9 -999.9 -9.9 -9.999 -99.9 -99.99 -9.99
2019/08/17 20:48 PDT  -99.99 -99.99    1  252    2 -99.9 -99.9 -999.9 -9.9 -9.999 -99.9 -99.99 -9.99
2019/08/17 20:54 PDT  -99.99 -99.99    1  108    2 -99.9 -99.9 -999.9 -9.9 -9.999 -99.9 -99.99 -9.99
2019/08/17 21:00 PDT  -99.99 -99.99    2   98    2 -99.9 -99.9 -999.9 -9.9 -9.999 -99.9 -99.99 -9.99
2019/08/17 21:06 PDT  -99.99 -99.99    4  143    5 -99.9 -99.9 -999.9 -9.9 -9.999 -99.9 -99.99 -9.99
2019/08/17 21:12 PDT  -99.99 -99.99    3  212    5 -99.9 -99.9 -999.9 -9.9 -9.999 -99.9 -99.99 -9.99
2019/08/17 21:18 PDT  -99.99 -99.99    3  186    5 -99.9 -99.9 -999.9 -9.9 -9.999 -99.9 -99.99 -9.99
2019/08/17 21:24 PDT  -99.99 -99.99    4  192    4 -99.9 -99.9 -999.9 -9.9 -9.999 -99.9 -99.99 -9.99
2019/08/17 21:30 PDT  -99.99 -99.99    4  186    5 -99.9 -99.9 -999.9 -9.9 -9.999 -99.9 -99.99 -9.99
2019/08/17 21:36 PDT  -99.99 -99.99    4  182    5 -99.9 -99.9 -999.9 -9.9 -9.999 -99.9 -99.99 -9.99
2019/08/17 21:42 PDT  -99.99 -99.99    4  189    5 -99.9 -99.9 -999.9 -9.9 -9.999 -99.9 -99.99 -9.99
2019/08/17 21:48 PDT  -99.99 -99.99    4  190    5 -99.9 -99.9 -999.9 -9.9 -9.999 -99.9 -99.99 -9.99
2019/08/17 21:54 PDT  -99.99 -99.99    4  187    5 -99.9 -99.9 -999.9 -9.9 -9.999 -99.9 -99.99 -9.99
2019/08/17 22:00 PDT  -99.99 -99.99    3  194    5 -99.9 -99.9 -999.9 -9.9 -9.999 -99.9 -99.99 -9.99
2019/08/17 22:06 PDT  -99.99 -99.99    4  182    5 -99.9 -99.9 -999.9 -9.9 -9.999 -99.9 -99.99 -9.99
2019/08/17 22:12 PDT  -99.99 -99.99    4  200    5 -99.9 -99.9 -999.9 -9.9 -9.999 -99.9 -99.99 -9.99
2019/08/17 22:18 PDT  -99.99 -99.99    4  179    5 -99.9 -99.9 -999.9 -9.9 -9.999 -99.9 -99.99 -9.99
2019/08/17 22:24 PDT  -99.99 -99.99    4  195    5 -99.9 -99.9 -999.9 -9.9 -9.999 -99.9 -99.99 -9.99
2019/08/17 22:30 PDT  -99.99 -99.99    2  178    4 -99.9 -99.9 -999.9 -9.9 -9.999 -99.9 -99.99 -9.99
2019/08/17 22:36 PDT  -99.99 -99.99    1  198    2 -99.9 -99.9 -999.9 -9.9 -9.999 -99.9 -99.99 -9.99
2019/08/17 22:42 PDT  -99.99 -99.99    1  149    2 -99.9 -99.9 -999.9 -9.9 -9.999 -99.9 -99.99 -9.99
2019/08/17 22:48 PDT  -99.99 -99.99    2  128    3 -99.9 -99.9 -999.9 -9.9 -9.999 -99.9 -99.99 -9.99
2019/08/17 22:54 PDT  -99.99 -99.99    3  123    4 -99.9 -99.9 -999.9 -9.9 -9.999 -99.9 -99.99 -9.99
2019/08/17 23:00 PDT  -99.99 -99.99    3  136    4 -99.9 -99.9 -999.9 -9.9 -9.999 -99.9 -99.99 -9.99
2019/08/17 23:06 PDT  -99.99 -99.99    3  139    4 -99.9 -99.9 -999.9 -9.9 -9.999 -99.9 -99.99 -9.99
2019/08/17 23:12 PDT  -99.99 -99.99    2  133    3 -99.9 -99.9 -999.9 -9.9 -9.999 -99.9 -99.99 -9.99
2019/08/17 23:18 PDT  -99.99 -99.99    2  138    4 -99.9 -99.9 -999.9 -9.9 -9.999 -99.9 -99.99 -9.99
2019/08/17 23:24 PDT  -99.99 -99.99    3  130    4 -99.9 -99.9 -999.9 -9.9 -9.999 -99.9 -99.99 -9.99
2019/08/17 23:30 PDT  -99.99 -99.99    2  128    4 -99.9 -99.9 -999.9 -9.9 -9.999 -99.9 -99.99 -9.99
2019/08/17 23:36 PDT  -99.99 -99.99    3  154    4 -99.9 -99.9 -999.9 -9.9 -9.999 -99.9 -99.99 -9.99
2019/08/17 23:42 PDT  -99.99 -99.99    3  153    4 -99.9 -99.9 -999.9 -9.9 -9.999 -99.9 -99.99 -9.99
2019/08/17 23:48 PDT  -99.99 -99.99    4  156    5 -99.9 -99.9 -999.9 -9.9 -9.999 -99.9 -99.99 -9.99
2019/08/17 23:54 PDT  -99.99 -99.99    4  157    5 -99.9 -99.9 -999.9 -9.9 -9.999 -99.9 -99.99 -9.99
2019/08/18 00:00 PDT  -99.99 -99.99    3  140    5 -99.9 -99.9 -999.9 -9.9 -9.999 -99.9 -99.99 -9.99
2019/08/18 00:06 PDT  -99.99 -99.99    4  154    5 -99.9 -99.9 -999.9 -9.9 -9.999 -99.9 -99.99 -9.99
2019/08/18 00:12 PDT  -99.99 -99.99    3  165    5 -99.9 -99.9 -999.9 -9.9 -9.999 -99.9 -99.99 -9.99
2019/08/18 00:18 PDT  -99.99 -99.99    4  161    5 -99.9 -99.9 -999.9 -9.9 -9.999 -99.9 -99.99 -9.99
2019/08/18 00:24 PDT  -99.99 -99.99    4  167    5 -99.9 -99.9 -999.9 -9.9 -9.999 -99.9 -99.99 -9.99
2019/08/18 00:30 PDT  -99.99 -99.99    4  160    4 -99.9 -99.9 -999.9 -9.9 -9.999 -99.9 -99.99 -9.99
2019/08/18 00:36 PDT  -99.99 -99.99    3  164    4 -99.9 -99.9 -999.9 -9.9 -9.999 -99.9 -99.99 -9.99
2019/08/18 00:42 PDT  -99.99 -99.99    4  143    5 -99.9 -99.9 -999.9 -9.9 -9.999 -99.9 -99.99 -9.99
2019/08/18 00:48 PDT  -99.99 -99.99    2  165    3 -99.9 -99.9 -999.9 -9.9 -9.999 -99.9 -99.99 -9.99
2019/08/18 00:54 PDT  -99.99 -99.99    3  142    4 -99.9 -99.9 -999.9 -9.9 -9.999 -99.9 -99.99 -9.99
2019/08/18 01:00 PDT  -99.99 -99.99    1  149    2 -99.9 -99.9 -999.9 -9.9 -9.999 -99.9 -99.99 -9.99
2019/08/18 01:06 PDT  -99.99 -99.99    3  177    4 -99.9 -99.9 -999.9 -9.9 -9.999 -99.9 -99.99 -9.99
2019/08/18 01:12 PDT  -99.99 -99.99    2  105    4 -99.9 -99.9 -999.9 -9.9 -9.999 -99.9 -99.99 -9.99
2019/08/18 01:18 PDT  -99.99 -99.99    3  134    6 -99.9 -99.9 -999.9 -9.9 -9.999 -99.9 -99.99 -9.99
2019/08/18 01:24 PDT  -99.99 -99.99    3  150    4 -99.9 -99.9 -999.9 -9.9 -9.999 -99.9 -99.99 -9.99
2019/08/18 01:30 PDT  -99.99 -99.99    4  149    5 -99.9 -99.9 -999.9 -9.9 -9.999 -99.9 -99.99 -9.99
2019/08/18 01:36 PDT  -99.99 -99.99    3  155    6 -99.9 -99.9 -999.9 -9.9 -9.999 -99.9 -99.99 -9.99
2019/08/18 01:42 PDT  -99.99 -99.99    3  154    4 -99.9 -99.9 -999.9 -9.9 -9.999 -99.9 -99.99 -9.99
2019/08/18 01:48 PDT  -99.99 -99.99    2  149    4 -99.9 -99.9 -999.9 -9.9 -9.999 -99.9 -99.99 -9.99
2019/08/18 01:54 PDT  -99.99 -99.99    4   99    5 -99.9 -99.9 -999.9 -9.9 -9.999 -99.9 -99.99 -9.99
2019/08/18 02:00 PDT  -99.99 -99.99    2  117    3 -99.9 -99.9 -999.9 -9.9 -9.999 -99.9 -99.99 -9.99
2019/08/18 02:06 PDT  -99.99 -99.99    0  147    2 -99.9 -99.9 -999.9 -9.9 -9.999 -99.9 -99.99 -9.99
2019/08/18 02:12 PDT  -99.99 -99.99    4  156    6 -99.9 -99.9 -999.9 -9.9 -9.999 -99.9 -99.99 -9.99
2019/08/18 02:18 PDT  -99.99 -99.99    4  158    6 -99.9 -99.9 -999.9 -9.9 -9.999 -99.9 -99.99 -9.99
2019/08/18 02:24 PDT  -99.99 -99.99    3  165    5 -99.9 -99.9 -999.9 -9.9 -9.999 -99.9 -99.99 -9.99
2019/08/18 02:30 PDT  -99.99 -99.99    3  194    4 -99.9 -99.9 -999.9 -9.9 -9.999 -99.9 -99.99 -9.99
2019/08/18 02:36 PDT  -99.99 -99.99    2  177    4 -99.9 -99.9 -999.9 -9.9 -9.999 -99.9 -99.99 -9.99
2019/08/18 02:42 PDT  -99.99 -99.99    2  143    4 -99.9 -99.9 -999.9 -9.9 -9.999 -99.9 -99.99 -9.99
2019/08/18 02:48 PDT  -99.99 -99.99    2  133    4 -99.9 -99.9 -999.9 -9.9 -9.999 -99.9 -99.99 -9.99
2019/08/18 02:54 PDT  -99.99 -99.99    3  178    4 -99.9 -99.9 -999.9 -9.9 -9.999 -99.9 -99.99 -9.99
2019/08/18 03:00 PDT  -99.99 -99.99    2  179    4 -99.9 -99.9 -999.9 -9.9 -9.999 -99.9 -99.99 -9.99
2019/08/18 03:06 PDT  -99.99 -99.99    3  156    4 -99.9 -99.9 -999.9 -9.9 -9.999 -99.9 -99.99 -9.99
2019/08/18 03:12 PDT  -99.99 -99.99    1  155    4 -99.9 -99.9 -999.9 -9.9 -9.999 -99.9 -99.99 -9.99
2019/08/18 03:18 PDT  -99.99 -99.99    1   73    3 -99.9 -99.9 -999.9 -9.9 -9.999 -99.9 -99.99 -9.99
2019/08/18 03:24 PDT  -99.99 -99.99    2   86    2 -99.9 -99.9 -999.9 -9.9 -9.999 -99.9 -99.99 -9.99
2019/08/18 03:30 PDT  -99.99 -99.99    2  103    4 -99.9 -99.9 -999.9 -9.9 -9.999 -99.9 -99.99 -9.99
2019/08/18 03:36 PDT  -99.99 -99.99    3  129    4 -99.9 -99.9 -999.9 -9.9 -9.999 -99.9 -99.99 -9.99
2019/08/18 03:42 PDT  -99.99 -99.99    2  132    3 -99.9 -99.9 -999.9 -9.9 -9.999 -99.9 -99.99 -9.99
2019/08/18 03:48 PDT  -99.99 -99.99    4  176    5 -99.9 -99.9 -999.9 -9.9 -9.999 -99.9 -99.99 -9.99
2019/08/18 03:54 PDT  -99.99 -99.99    5  140    5 -99.9 -99.9 -999.9 -9.9 -9.999 -99.9 -99.99 -9.99
2019/08/18 04:00 PDT  -99.99 -99.99    3  149    4 -99.9 -99.9 -999.9 -9.9 -9.999 -99.9 -99.99 -9.99
2019/08/18 04:06 PDT  -99.99 -99.99    5  174    6 -99.9 -99.9 -999.9 -9.9 -9.999 -99.9 -99.99 -9.99
2019/08/18 04:12 PDT  -99.99 -99.99    5  178    5 -99.9 -99.9 -999.9 -9.9 -9.999 -99.9 -99.99 -9.99
2019/08/18 04:18 PDT  -99.99 -99.99    4  156    5 -99.9 -99.9 -999.9 -9.9 -9.999 -99.9 -99.99 -9.99
2019/08/18 04:24 PDT  -99.99 -99.99    3  148    5 -99.9 -99.9 -999.9 -9.9 -9.999 -99.9 -99.99 -9.99
2019/08/18 04:30 PDT  -99.99 -99.99    4  179    4 -99.9 -99.9 -999.9 -9.9 -9.999 -99.9 -99.99 -9.99
2019/08/18 04:36 PDT  -99.99 -99.99    3  147    4 -99.9 -99.9 -999.9 -9.9 -9.999 -99.9 -99.99 -9.99
2019/08/18 04:42 PDT  -99.99 -99.99    3  155    5 -99.9 -99.9 -999.9 -9.9 -9.999 -99.9 -99.99 -9.99
2019/08/18 04:48 PDT  -99.99 -99.99    4  164    7 -99.9 -99.9 -999.9 -9.9 -9.999 -99.9 -99.99 -9.99
2019/08/18 04:54 PDT  -99.99 -99.99    4  149    8 -99.9 -99.9 -999.9 -9.9 -9.999 -99.9 -99.99 -9.99
2019/08/18 05:00 PDT  -99.99 -99.99    3  143    6 -99.9 -99.9 -999.9 -9.9 -9.999 -99.9 -99.99 -9.99
2019/08/18 05:06 PDT  -99.99 -99.99    4  147    5 -99.9 -99.9 -999.9 -9.9 -9.999 -99.9 -99.99 -9.99
2019/08/18 05:12 PDT  -99.99 -99.99    5  145    6 -99.9 -99.9 -999.9 -9.9 -9.999 -99.9 -99.99 -9.99
2019/08/18 05:18 PDT  -99.99 -99.99    4  153    5 -99.9 -99.9 -999.9 -9.9 -9.999 -99.9 -99.99 -9.99
2019/08/18 05:24 PDT  -99.99 -99.99    4  137    6 -99.9 -99.9 -999.9 -9.9 -9.999 -99.9 -99.99 -9.99
2019/08/18 05:30 PDT  -99.99 -99.99    4  136    6 -99.9 -99.9 -999.9 -9.9 -9.999 -99.9 -99.99 -9.99
2019/08/18 05:36 PDT  -99.99 -99.99    5  145    6 -99.9 -99.9 -999.9 -9.9 -9.999 -99.9 -99.99 -9.99
2019/08/18 05:42 PDT  -99.99 -99.99    7  140    9 -99.9 -99.9 -999.9 -9.9 -9.999 -99.9 -99.99 -9.99
2019/08/18 05:48 PDT  -99.99 -99.99    5  138    8 -99.9 -99.9 -999.9 -9.9 -9.999 -99.9 -99.99 -9.99
2019/08/18 05:54 PDT  -99.99 -99.99    5  141    7 -99.9 -99.9 -999.9 -9.9 -9.999 -99.9 -99.99 -9.99
2019/08/18 06:00 PDT  -99.99 -99.99    5  152    7 -99.9 -99.9 -999.9 -9.9 -9.999 -99.9 -99.99 -9.99
2019/08/18 06:06 PDT  -99.99 -99.99    5  146    7 -99.9 -99.9 -999.9 -9.9 -9.999 -99.9 -99.99 -9.99
2019/08/18 06:12 PDT  -99.99 -99.99    5  150    7 -99.9 -99.9 -999.9 -9.9 -9.999 -99.9 -99.99 -9.99
2019/08/18 06:18 PDT  -99.99 -99.99    5  139    8 -99.9 -99.9 -999.9 -9.9 -9.999 -99.9 -99.99 -9.99
2019/08/18 06:24 PDT  -99.99 -99.99    4  140    5 -99.9 -99.9 -999.9 -9.9 -9.999 -99.9 -99.99 -9.99
2019/08/18 06:30 PDT  -99.99 -99.99    2  104    4 -99.9 -99.9 -999.9 -9.9 -9.999 -99.9 -99.99 -9.99
2019/08/18 06:36 PDT  -99.99 -99.99    6  104    7 -99.9 -99.9 -999.9 -9.9 -9.999 -99.9 -99.99 -9.99
2019/08/18 06:42 PDT  -99.99 -99.99    6  104    7 -99.9 -99.9 -999.9 -9.9 -9.999 -99.9 -99.99 -9.99
2019/08/18 06:48 PDT  -99.99 -99.99    4   87    8 -99.9 -99.9 -999.9 -9.9 -9.999 -99.9 -99.99 -9.99
2019/08/18 06:54 PDT  -99.99 -99.99    7  101    8 -99.9 -99.9 -999.9 -9.9 -9.999 -99.9 -99.99 -9.99
2019/08/18 07:00 PDT  -99.99 -99.99    5  109    7 -99.9 -99.9 -999.9 -9.9 -9.999 -99.9 -99.99 -9.99
2019/08/18 07:06 PDT  -99.99 -99.99    7   96    8 -99.9 -99.9 -999.9 -9.9 -9.999 -99.9 -99.99 -9.99
2019/08/18 07:12 PDT  -99.99 -99.99    4  121    7 -99.9 -99.9 -999.9 -9.9 -9.999 -99.9 -99.99 -9.99
2019/08/18 07:18 PDT  -99.99 -99.99    4  144    6 -99.9 -99.9 -999.9 -9.9 -9.999 -99.9 -99.99 -9.99
2019/08/18 07:24 PDT  -99.99 -99.99    2  131    4 -99.9 -99.9 -999.9 -9.9 -9.999 -99.9 -99.99 -9.99
2019/08/18 07:30 PDT  -99.99 -99.99    2  135    4 -99.9 -99.9 -999.9 -9.9 -9.999 -99.9 -99.99 -9.99
2019/08/18 07:36 PDT  -99.99 -99.99    4  114    6 -99.9 -99.9 -999.9 -9.9 -9.999 -99.9 -99.99 -9.99
2019/08/18 07:42 PDT  -99.99 -99.99    4  102    8 -99.9 -99.9 -999.9 -9.9 -9.999 -99.9 -99.99 -9.99
2019/08/18 07:48 PDT  -99.99 -99.99    3  138    4 -99.9 -99.9 -999.9 -9.9 -9.999 -99.9 -99.99 -9.99
2019/08/18 07:54 PDT  -99.99 -99.99    5   96    7 -99.9 -99.9 -999.9 -9.9 -9.999 -99.9 -99.99 -9.99
2019/08/18 08:00 PDT  -99.99 -99.99    4  131    7 -99.9 -99.9 -999.9 -9.9 -9.999 -99.9 -99.99 -9.99
2019/08/18 08:06 PDT  -99.99 -99.99    5  140    6 -99.9 -99.9 -999.9 -9.9 -9.999 -99.9 -99.99 -9.99
2019/08/18 08:12 PDT  -99.99 -99.99    4  138    5 -99.9 -99.9 -999.9 -9.9 -9.999 -99.9 -99.99 -9.99
2019/08/18 08:18 PDT  -99.99 -99.99    5  137    6 -99.9 -99.9 -999.9 -9.9 -9.999 -99.9 -99.99 -9.99
2019/08/18 08:24 PDT  -99.99 -99.99    3  132    6 -99.9 -99.9 -999.9 -9.9 -9.999 -99.9 -99.99 -9.99
2019/08/18 08:30 PDT  -99.99 -99.99    5  143    6 -99.9 -99.9 -999.9 -9.9 -9.999 -99.9 -99.99 -9.99
2019/08/18 08:36 PDT  -99.99 -99.99    4  150    6 -99.9 -99.9 -999.9 -9.9 -9.999 -99.9 -99.99 -9.99
2019/08/18 08:42 PDT  -99.99 -99.99    6  144   10 -99.9 -99.9 -999.9 -9.9 -9.999 -99.9 -99.99 -9.99
2019/08/18 08:48 PDT  -99.99 -99.99    3  144    6 -99.9 -99.9 -999.9 -9.9 -9.999 -99.9 -99.99 -9.99
2019/08/18 08:54 PDT  -99.99 -99.99    4  135    5 -99.9 -99.9 -999.9 -9.9 -9.999 -99.9 -99.99 -9.99
2019/08/18 09:00 PDT  -99.99 -99.99 -999 -999 -999 -99.9 -99.9 -999.9 -9.9 -9.999 -99.9 -99.99 -9.99

Revised: 08/08/2018
NOAA / National Ocean Service
Web site owner: Center for Operational Oceanographic Products and Services